Bel Air, Maryland - USA


Yesterday's Data File


2/25/24
Time         Wind Dir   Wind Spd  Wind Gust     Hum In   Humidity    Temp In       Temp  Raw Barom Wind Chill  Press Alt Cloud Base   Dens Alt Temp Out R  DailyRain   24HrRain   RainRate
                    �        mph        mph          %          %         �F         �F         in         �F         ft         ft         ft      �F/hr         in         in      in/hr
12:00am           350          1          3         27         55       76.4       28.4      29.46       28.4        424       3523      -1542      -1.10       0.00       0.04      0.000
12:01am           350          2          2         28         56       76.3       28.3      29.46       26.9        425       3418      -1548      -1.17       0.00       0.04      0.000
12:02am           351          2          4         28         56       76.3       28.3      29.46       26.9        426       3418      -1546      -1.16       0.00       0.04      0.000
12:03am           351          2          4         27         55       76.3       28.3      29.46       26.9        424       3521      -1549      -1.14       0.00       0.04      0.000
12:04am           351          2          4         27         55       76.3       28.3      29.47       26.9        422       3521      -1551      -1.12       0.00       0.04      0.000
12:05am           351          3          4         27         56       76.3       28.3      29.47       25.1        422       3418      -1551      -1.10       0.00       0.04      0.000
12:06am            21          1          5         27         55       76.3       28.2      29.47       28.2        419       3520      -1562      -1.18       0.00       0.04      0.000
12:07am            21          0          5         27         56       76.3       28.2      29.47       28.2        420       3417      -1560      -1.16       0.00       0.04      0.000
12:08am            15          2          5         27         56       76.3       28.2      29.47       26.8        419       3417      -1562      -1.15       0.00       0.04      0.000
12:09am             8          3          5         27         56       76.3       28.2      29.47       25.0        418       3417      -1563      -1.13       0.00       0.04      0.000
12:10am             9          1          5         27         55       76.3       28.2      29.47       28.2        418       3520      -1564      -1.11       0.00       0.04      0.000
12:11am            18          2          5         27         55       76.3       28.2      29.47       26.8        418       3520      -1564      -1.09       0.00       0.04      0.000
12:12am             5          2          5         27         55       76.3       28.2      29.47       26.8        417       3520      -1565      -1.07       0.00       0.04      0.000
12:13am             5          2          5         27         56       76.3       28.2      29.47       26.8        417       3417      -1565      -1.05       0.00       0.04      0.000
12:14am             5          3          5         27         56       76.3       28.2      29.47       25.0        417       3417      -1565      -1.04       0.00       0.04      0.000
12:15am             5          3          5         27         56       76.3       28.2      29.47       25.0        417       3417      -1565      -1.02       0.00       0.04      0.000
12:16am             5          1          3         27         55       76.3       28.1      29.47       28.1        417       3518      -1572      -1.10       0.00       0.04      0.000
12:17am             5          2          3         27         56       76.3       28.1      29.47       26.7        417       3415      -1572      -1.08       0.00       0.04      0.000
12:18am            10          2          4         27         56       76.3       28.1      29.47       26.7        416       3415      -1573      -1.07       0.00       0.04      0.000
12:19am            10          1          4         27         56       76.3       28.1      29.47       28.1        417       3415      -1572      -1.05       0.00       0.04      0.000
12:20am            10          1          4         27         56       76.3       28.1      29.47       28.1        416       3415      -1573      -1.03       0.00       0.04      0.000
12:21am            10          2          2         27         56       76.3       28.0      29.47       26.6        416       3414      -1580      -1.11       0.00       0.04      0.000
12:22am            10          2          2         27         56       76.3       28.0      29.47       26.6        416       3414      -1580      -1.09       0.00       0.04      0.000
12:23am            28          2          4         27         56       76.3       28.0      29.47       26.6        416       3414      -1580      -1.08       0.00       0.04      0.000
12:24am           358          2          5         27         56       76.3       27.9      29.47       26.5        416       3412      -1587      -1.15       0.00       0.04      0.000
12:25am           358          1          5         27         56       76.3       27.9      29.47       27.9        416       3412      -1587      -1.14       0.00       0.04      0.000
12:26am            14          3          4         27         56       76.3       27.9      29.47       24.7        416       3412      -1587      -1.12       0.00       0.04      0.000
12:27am            14          1          4         27         56       76.3       27.9      29.47       27.9        416       3412      -1587      -1.10       0.00       0.04      0.000
12:28am            17          0          4         27         56       76.3       27.9      29.47       27.9        416       3412      -1587      -1.08       0.00       0.04      0.000
12:29am            14          3          4         27         56       76.3       27.9      29.47       24.7        416       3412      -1587      -1.07       0.00       0.04      0.000
12:30am            14          1          4         27         56       76.3       27.8      29.47       27.8        416       3411      -1595      -1.15       0.00       0.04      0.000
12:31am            14          2          3         27         56       76.3       27.9      29.47       26.5        416       3412      -1587      -1.03       0.00       0.04      0.000
12:32am            22          2          3         27         56       76.3       27.8      29.47       26.4        416       3411      -1595      -1.11       0.00       0.04      0.000
12:33am            21          2          3         27         56       76.3       27.8      29.47       26.4        416       3411      -1595      -1.09       0.00       0.04      0.000
12:34am            19          4          5         27         56       76.3       27.8      29.47       23.2        415       3411      -1596      -1.08       0.00       0.04      0.000
12:35am            19          1          5         27         56       76.3       27.8      29.47       27.8        415       3411      -1596      -1.06       0.00       0.04      0.000
12:36am            27          2          3         27         56       76.3       27.8      29.48       26.4        414       3411      -1597      -1.04       0.00       0.04      0.000
12:37am            27          1          3         27         56       76.3       27.8      29.48       27.8        414       3411      -1597      -1.02       0.00       0.04      0.000
12:38am            27          1          3         27         56       76.3       27.8      29.48       27.8        414       3411      -1597      -1.01       0.00       0.04      0.000
12:39am            27          1          3         27         56       76.3       27.7      29.48       27.7        414       3409      -1604      -1.09       0.00       0.04      0.000
12:40am           345          3          6         27         56       76.3       27.7      29.48       24.5        414       3409      -1604      -1.07       0.00       0.04      0.000
12:41am            14          3          4         27         56       76.3       27.7      29.48       24.5        414       3409      -1604      -1.05       0.00       0.04      0.000
12:42am            14          2          4         27         56       76.3       27.7      29.48       26.2        414       3409      -1604      -1.04       0.00       0.04      0.000
12:43am            14          2          4         27         56       76.3       27.7      29.48       26.2        414       3409      -1604      -1.02       0.00       0.04      0.000
12:44am            14          1          4         27         56       76.3       27.6      29.48       27.6        413       3408      -1612      -1.10       0.00       0.04      0.000
12:45am            14          1          4         27         56       76.3       27.6      29.48       27.6        413       3408      -1612      -1.08       0.00       0.04      0.000
12:46am            13          3          4         27         56       76.3       27.6      29.48       24.3        413       3408      -1612      -1.06       0.00       0.04      0.000
12:47am            18          2          4         27         56       76.3       27.6      29.48       26.1        413       3408      -1612      -1.05       0.00       0.04      0.000
12:48am            18          1          4         27         56       76.1       27.6      29.48       27.6        413       3408      -1612      -1.02       0.00       0.04      0.000
12:49am            18          2          4         27         56       76.1       27.6      29.48       26.1        413       3408      -1612      -1.01       0.00       0.04      0.000
12:50am            18          2          4         27         56       76.1       27.6      29.48       26.1        413       3408      -1612      -1.00       0.00       0.04      0.000
12:51am            16          1          3         27         56       76.1       27.5      29.48       27.5        414       3406      -1618      -1.08       0.00       0.04      0.000
12:52am            20          4          5         27         56       76.1       27.5      29.48       22.9        414       3406      -1618      -1.06       0.00       0.04      0.000
12:53am            22          2          5         27         56       76.1       27.5      29.48       26.0        413       3406      -1619      -1.05       0.00       0.04      0.000
12:54am            22          2          5         27         56       76.1       27.6      29.48       26.1        413       3408      -1612      -0.93       0.00       0.04      0.000
12:55am            27          2          5         27         56       76.1       27.5      29.48       26.0        412       3406      -1620      -1.01       0.00       0.04      0.000
12:56am           358          2          3         27         56       76.1       27.5      29.48       26.0        412       3406      -1620      -1.00       0.00       0.04      0.000
12:57am           358          1          3         27         56       76.1       27.5      29.48       27.5        412       3406      -1620      -0.98       0.00       0.04      0.000
12:58am           358          2          3         27         56       76.1       27.5      29.48       26.0        411       3406      -1622      -0.96       0.00       0.04      0.000
12:59am           358          3          3         27         56       76.1       27.5      29.48       24.2        410       3406      -1623      -0.95       0.00       0.04      0.000
1:00am              7          3          4         27         56       76.1       27.4      29.48       24.1        410       3404      -1630      -1.03       0.00       0.04      0.000
1:01am             61          3          4         27         56       76.1       27.5      29.48       24.2        410       3406      -1623      -0.92       0.00       0.04      0.000
1:02am             21          2          4         27         56       76.1       27.4      29.48       25.9        408       3404      -1632      -1.00       0.00       0.04      0.000
1:03am              4          4          5         27         56       76.1       27.4      29.48       22.8        408       3404      -1632      -0.98       0.00       0.04      0.000
1:04am             16          2          5         27         56       76.1       27.4      29.48       25.9        406       3404      -1634      -0.97       0.00       0.04      0.000
1:05am             16          2          5         27         56       76.1       27.4      29.48       25.9        406       3404      -1634      -0.95       0.00       0.04      0.000
1:06am             14          2          3         27         56       76.1       27.4      29.48       25.9        406       3404      -1634      -0.94       0.00       0.04      0.000
1:07am             19          2          3         27         56       76.1       27.4      29.49       25.9        405       3404      -1637      -0.92       0.00       0.04      0.000
1:08am             19          2          3         27         56       76.1       27.4      29.49       25.9        404       3404      -1638      -0.90       0.00       0.04      0.000
1:09am             19          1          3         27         56       76.1       27.3      29.49       27.3        403       3403      -1646      -0.99       0.00       0.04      0.000
1:10am             23          2          3         27         56       76.1       27.4      29.49       25.9        403       3404      -1639      -0.87       0.00       0.04      0.000
1:11am             16          3          3         27         56       76.1       27.3      29.49       24.0        402       3403      -1647      -0.96       0.00       0.04      0.000
1:12am             16          1          5         27         56       76.1       27.3      29.49       27.3        402       3403      -1647      -0.94       0.00       0.04      0.000
1:13am             16          2          5         27         56       76.1       27.2      29.49       25.7        401       3401      -1655      -1.03       0.00       0.04      0.000
1:14am             12          5          7         27         56       76.1       27.2      29.49       21.4        401       3401      -1655      -1.01       0.00       0.04      0.000
1:15am             29          1          7         27         56       76.1       27.3      29.49       27.3        401       3403      -1648      -0.89       0.00       0.04      0.000
1:16am             29          3          3         27         56       76.1       27.2      29.49       23.9        401       3401      -1655      -0.98       0.00       0.04      0.000
1:17am             39          2          5         27         56       76.1       27.2      29.49       25.7        400       3401      -1657      -0.96       0.00       0.04      0.000
1:18am             30          5          5         27         56       76.1       27.2      29.49       21.4        400       3401      -1657      -0.94       0.00       0.04      0.000
1:19am             29          2          5         27         56       76.1       27.2      29.49       25.7        400       3401      -1657      -0.93       0.00       0.04      0.000
1:20am             29          1          5         27         56       76.1       27.1      29.49       27.1        400       3400      -1664      -1.01       0.00       0.04      0.000
1:21am             23          2          5         27         56       76.1       27.2      29.49       25.7        400       3401      -1657      -0.90       0.00       0.04      0.000
1:22am             20          3          5         27         56       76.1       27.2      29.49       23.9        400       3401      -1657      -0.88       0.00       0.04      0.000
1:23am             20          3          5         27         56       76.1       27.1      29.49       23.8        400       3400      -1664      -0.97       0.00       0.04      0.000
1:24am             20          2          5         27         56       76.1       27.1      29.49       25.6        400       3400      -1664      -0.95       0.00       0.04      0.000
1:25am             19          1          5         27         56       76.1       27.1      29.49       27.1        400       3400      -1664      -0.93       0.00       0.04      0.000
1:26am             19          2          3         27         56       76.1       27.1      29.49       25.6        400       3400      -1664      -0.92       0.00       0.04      0.000
1:27am             19          1          3         27         57       76.1       27.0      29.49       27.0        399       3298      -1672      -1.00       0.00       0.04      0.000
1:28am             17          2          5         27         56       76.1       27.0      29.49       25.5        399       3398      -1672      -0.99       0.00       0.04      0.000
1:29am             17          3          5         27         57       76.1       27.0      29.49       23.7        399       3298      -1672      -0.97       0.00       0.04      0.000
1:30am             17          3          5         27         57       76.1       27.0      29.49       23.7        396       3298      -1675      -0.96       0.00       0.04      0.000
1:31am             12          2          5         27         57       76.1       27.0      29.49       25.5        395       3298      -1677      -0.94       0.00       0.04      0.000
1:32am             27          6          6         27         56       76.1       26.9      29.50       20.2        393       3397      -1687      -1.02       0.00       0.04      0.000
1:33am              4          3          6         27         56       76.1       27.0      29.50       23.7        393       3398      -1680      -0.91       0.00       0.04      0.000
1:34am             10          1          6         27         57       76.1       26.9      29.50       26.9        392       3296      -1688      -0.99       0.00       0.04      0.000
1:35am             10          2          6         27         57       76.1       26.9      29.50       25.4        391       3296      -1689      -0.98       0.00       0.04      0.000
1:36am             21          1          3         27         56       76.1       26.9      29.50       26.9        389       3397      -1692      -0.96       0.00       0.04      0.000
1:37am             31          2          3         27         56       76.1       26.9      29.50       25.4        389       3397      -1692      -0.94       0.00       0.04      0.000
1:38am             15          2          9         27         57       76.1       26.9      29.50       25.4        387       3296      -1694      -0.93       0.00       0.04      0.000
1:39am             14          1          9         27         56       76.1       26.9      29.50       26.9        387       3397      -1694      -0.91       0.00       0.04      0.000
1:40am             13          3          9         27         57       76.1       26.9      29.50       23.5        387       3296      -1694      -0.90       0.00       0.04      0.000
1:41am             13          1          3         27         56       76.1       26.9      29.50       26.9        388       3397      -1693      -0.88       0.00       0.04      0.000
1:42am             13          3          3         27         56       76.1       26.8      29.50       23.4        388       3395      -1700      -0.97       0.00       0.04      0.000
1:43am              5          2          3         27         56       76.1       26.8      29.50       25.3        388       3395      -1700      -0.95       0.00       0.04      0.000
1:44am              5          0          3         27         57       76.1       26.8      29.50       26.8        388       3295      -1700      -0.94       0.00       0.04      0.000
1:45am              5          2          3         27         57       76.1       26.8      29.50       25.3        387       3295      -1701      -0.92       0.00       0.04      0.000
1:46am              5          1          2         27         57       76.1       26.8      29.50       26.8        387       3295      -1701      -0.91       0.00       0.04      0.000
1:47am             33          2          5         27         57       76.1       26.8      29.50       25.3        387       3295      -1701      -0.89       0.00       0.04      0.000
1:48am             30          1          5         27         57       76.1       26.8      29.50       26.8        387       3295      -1701      -0.88       0.00       0.04      0.000
1:49am             30          1          5         27         57       76.1       26.7      29.50       26.7        387       3293      -1708      -0.96       0.00       0.04      0.000
1:50am             34          2          5         27         56       76.1       26.8      29.50       25.3        387       3395      -1701      -0.85       0.00       0.04      0.000
1:51am             34          1          2         27         56       76.1       26.7      29.50       26.7        388       3394      -1707      -0.93       0.00       0.04      0.000
1:52am             34          0          2         27         57       76.1       26.7      29.50       26.7        387       3293      -1708      -0.92       0.00       0.04      0.000
1:53am             34          2          2         27         57       76.1       26.7      29.50       25.1        387       3293      -1708      -0.90       0.00       0.04      0.000
1:54am             34          3          3         27         57       76.1       26.7      29.50       23.3        387       3293      -1708      -0.89       0.00       0.04      0.000
1:55am             33          2          3         27         57       76.1       26.6      29.50       25.0        387       3292      -1715      -0.97       0.00       0.04      0.000
1:56am             33          1          2         27         57       76.1       26.7      29.50       26.7        387       3293      -1708      -0.85       0.00       0.04      0.000
1:57am             33          2          3         27         57       76.1       26.6      29.50       25.0        386       3292      -1717      -0.94       0.00       0.04      0.000
1:58am             33          2          3         27         57       76.3       26.6      29.50       25.0        387       3292      -1715      -0.92       0.00       0.04      0.000
1:59am             33          1          3         27         57       76.3       26.6      29.50       26.6        386       3292      -1717      -0.91       0.00       0.04      0.000
2:00am             33          2          3         27         57       76.3       26.6      29.50       25.0        386       3292      -1717      -0.89       0.00       0.04      0.000
2:01am             33          1          3         27         57       76.3       26.6      29.50       26.6        386       3292      -1717      -0.88       0.00       0.04      0.000
2:02am             33          2          3         27         57       76.3       26.5      29.50       24.9        386       3290      -1724      -0.96       0.00       0.04      0.000
2:03am             14          2          4         27         57       76.3       26.5      29.51       24.9        385       3290      -1725      -0.95       0.00       0.04      0.000
2:04am             14          1          4         27         57       76.3       26.5      29.51       26.5        385       3290      -1725      -0.93       0.00       0.04      0.000
2:05am             14          2          4         27         57       76.3       26.5      29.51       24.9        385       3290      -1725      -0.92       0.00       0.04      0.000
2:06am             14          3          4         27         57       76.3       26.5      29.51       23.1        385       3290      -1725      -0.90       0.00       0.04      0.000
2:07am             37          3          5         27         57       76.3       26.5      29.51       23.1        385       3290      -1725      -0.89       0.00       0.04      0.000
2:08am             34          2          5         27         57       76.3       26.4      29.51       24.8        385       3289      -1732      -0.97       0.00       0.04      0.000
2:09am             34          1          5         27         57       76.3       26.5      29.51       26.5        385       3290      -1725      -0.86       0.00       0.04      0.000
2:10am             19          4          5         27         57       76.3       26.5      29.51       21.7        385       3290      -1725      -0.84       0.00       0.04      0.000
2:11am             31          2          5         27         57       76.3       26.5      29.51       24.9        385       3290      -1725      -0.83       0.00       0.04      0.000
2:12am             31          1          5         27         57       76.3       26.5      29.51       26.5        385       3290      -1725      -0.81       0.00       0.04      0.000
2:13am             31          1          5         27         57       76.3       26.4      29.51       26.4        384       3289      -1733      -0.90       0.00       0.04      0.000
2:14am             31          0          5         27         57       76.3       26.4      29.51       26.4        384       3289      -1733      -0.88       0.00       0.04      0.000
2:15am             31          1          5         27         57       76.3       26.4      29.51       26.4        383       3289      -1735      -0.87       0.00       0.04      0.000
2:16am             31          0          1         27         57       76.3       26.3      29.51       26.3        383       3287      -1742      -0.95       0.00       0.04      0.000
2:17am             31          0          1         27         58       76.3       26.3      29.51       26.3        381       3188      -1745      -0.94       0.00       0.04      0.000
2:18am             31          0          1         27         58       76.3       26.3      29.51       26.3        379       3188      -1747      -0.92       0.00       0.04      0.000
2:19am             31          0          1         27         58       76.3       26.3      29.51       26.3        378       3188      -1748      -0.91       0.00       0.04      0.000
2:20am             31          0          1         27         59       76.3       26.3      29.51       26.3        378       3091      -1748      -0.89       0.00       0.04      0.000
2:21am             31          0          0         27         59       76.3       26.2      29.51       26.2        378       3090      -1755      -0.98       0.00       0.04      0.000
2:22am             31          0          0         27         59       76.3       26.1      29.51       26.1        377       3088      -1764      -1.06       0.00       0.04      0.000
2:23am             31          0          0         27         59       76.3       26.2      29.51       26.2        377       3090      -1756      -0.95       0.00       0.04      0.000
2:24am             31          0          0         27         60       76.3       26.1      29.52       26.1        375       2993      -1766      -1.03       0.00       0.04      0.000
2:25am             31          0          0         27         60       76.3       26.0      29.52       26.0        375       2991      -1773      -1.11       0.00       0.04      0.000
2:26am             31          0          0         27         61       76.3       26.0      29.52       26.0        374       2897      -1774      -1.09       0.00       0.04      0.000
2:27am             31          0          0         27         61       76.3       26.0      29.52       26.0        374       2897      -1774      -1.08       0.00       0.04      0.000
2:28am             31          0          0         27         61       76.3       25.9      29.52       25.9        374       2896      -1781      -1.16       0.00       0.04      0.000
2:29am             31          0          2         27         61       76.3       25.8      29.52       25.8        374       2895      -1788      -1.24       0.00       0.04      0.000
2:30am             31          0          2         27         60       76.3       25.8      29.52       25.8        374       2989      -1788      -1.22       0.00       0.04      0.000
2:31am             31          0          1         27         62       76.3       25.8      29.52       25.8        374       2802      -1788      -1.19       0.00       0.04      0.000
2:32am             31          1          1         27         61       76.3       25.6      29.52       25.6        375       2892      -1801      -1.37       0.00       0.04      0.000
2:33am             31          1          2         27         60       76.3       25.6      29.52       25.6        376       2986      -1800      -1.35       0.00       0.04      0.000
2:34am             31          2          2         27         60       76.3       25.6      29.52       23.9        375       2986      -1801      -1.33       0.00       0.04      0.000
2:35am             31          2          2         27         60       76.3       25.5      29.52       23.8        374       2985      -1810      -1.41       0.00       0.04      0.000
2:36am             31          1          2         27         61       76.3       25.5      29.52       25.5        373       2891      -1811      -1.38       0.00       0.04      0.000
2:37am             31          1          2         27         61       76.3       25.5      29.52       25.5        373       2891      -1811      -1.36       0.00       0.04      0.000
2:38am             31          0          2         27         61       76.3       25.4      29.52       25.4        372       2889      -1819      -1.44       0.00       0.04      0.000
2:39am             31          0          2         27         61       76.3       25.4      29.52       25.4        372       2889      -1819      -1.41       0.00       0.04      0.000
2:40am             31          1          2         27         61       76.3       25.4      29.52       25.4        373       2889      -1818      -1.39       0.00       0.04      0.000
2:41am             31          1          2         27         61       76.3       25.4      29.52       25.4        373       2889      -1818      -1.37       0.00       0.04      0.000
2:42am             31          1          2         27         61       76.3       25.3      29.52       25.3        373       2888      -1825      -1.44       0.00       0.04      0.000
2:43am             31          0          2         27         61       76.3       25.3      29.52       25.3        373       2888      -1825      -1.42       0.00       0.04      0.000
2:44am             31          0          2         27         61       76.3       25.2      29.52       25.2        372       2887      -1833      -1.49       0.00       0.04      0.000
2:45am             31          0          2         27         62       76.3       25.2      29.52       25.2        372       2794      -1833      -1.47       0.00       0.04      0.000
2:46am             31          0          0         27         62       76.3       25.2      29.52       25.2        372       2794      -1833      -1.45       0.00       0.04      0.000
2:47am             31          0          0         27         63       76.3       25.2      29.52       25.2        372       2703      -1835      -1.42       0.00       0.04      0.000
2:48am             31          0          0         27         62       76.3       25.1      29.52       25.1        372       2793      -1842      -1.50       0.00       0.04      0.000
2:49am             31          0          0         27         65       76.3       25.1      29.52       25.1        372       2523      -1842      -1.47       0.00       0.04      0.000
2:50am             31          0          0         27         65       76.3       25.1      29.52       25.1        372       2523      -1842      -1.45       0.00       0.04      0.000
2:51am             31          0          0         27         65       76.3       25.0      29.52       25.0        372       2522      -1849      -1.52       0.00       0.04      0.000
2:52am             31          0          0         27         65       76.3       24.9      29.52       24.9        372       2521      -1856      -1.60       0.00       0.04      0.000
2:53am             31          0          0         27         66       76.3       24.9      29.52       24.9        372       2434      -1856      -1.57       0.00       0.04      0.000
2:54am             31          0          0         27         66       76.3       24.9      29.52       24.9        372       2434      -1856      -1.54       0.00       0.04      0.000
2:55am             31          0          0         27         65       76.3       24.8      29.52       24.8        371       2520      -1864      -1.62       0.00       0.04      0.000
2:56am             31          0          0         27         66       76.3       24.7      29.52       24.7        371       2431      -1871      -1.69       0.00       0.04      0.000
2:57am             31          0          0         27         66       76.3       24.6      29.52       24.6        371       2430      -1879      -1.76       0.00       0.04      0.000
2:58am             31          0          0         27         66       76.3       24.6      29.52       24.6        370       2430      -1880      -1.73       0.00       0.04      0.000
2:59am             31          0          0         27         66       76.3       24.5      29.52       24.5        370       2429      -1887      -1.80       0.00       0.04      0.000
3:00am             31          0          0         27         67       76.3       24.5      29.52       24.5        370       2343      -1887      -1.77       0.00       0.04      0.000
3:01am             31          0          0         27         66       76.3       24.4      29.52       24.4        369       2428      -1895      -1.84       0.00       0.04      0.000
3:02am             31          0          0         27         67       76.3       24.3      29.52       24.3        369       2341      -1902      -1.91       0.00       0.04      0.000
3:03am             31          0          0         27         66       76.3       24.3      29.52       24.3        368       2427      -1904      -1.88       0.00       0.04      0.000
3:04am             31          0          0         27         66       76.3       24.3      29.52       24.3        368       2427      -1904      -1.85       0.00       0.04      0.000
3:05am             31          0          0         27         66       76.3       24.3      29.53       24.3        366       2427      -1906      -1.82       0.00       0.04      0.000
3:06am             31          0          0         27         65       76.3       24.2      29.53       24.2        365       2513      -1914      -1.89       0.00       0.04      0.000
3:07am             31          0          0         27         64       76.3       24.2      29.53       24.2        364       2601      -1915      -1.86       0.00       0.04      0.000
3:08am             31          0          0         27         64       76.3       24.1      29.53       24.1        365       2600      -1921      -1.93       0.00       0.04      0.000
3:09am             31          0          0         27         63       76.3       24.1      29.53       24.1        364       2689      -1922      -1.89       0.00       0.04      0.000
3:10am             31          0          0         27         64       76.3       24.1      29.53       24.1        364       2600      -1922      -1.86       0.00       0.04      0.000
3:11am             31          0          0         27         64       76.3       24.1      29.53       24.1        364       2600      -1922      -1.83       0.00       0.04      0.000
3:12am             31          0          0         27         64       76.3       24.2      29.53       24.2        364       2601      -1915      -1.70       0.00       0.04      0.000
3:13am             31          0          0         27         64       76.4       24.1      29.53       24.1        363       2600      -1924      -1.77       0.00       0.04      0.000
3:14am             31          0          0         27         64       76.4       24.1      29.53       24.1        363       2600      -1924      -1.74       0.00       0.04      0.000
3:15am             31          0          0         27         64       76.4       24.0      29.53       24.0        362       2599      -1932      -1.81       0.00       0.04      0.000
3:16am             31          0          0         27         64       76.4       24.0      29.53       24.0        361       2599      -1933      -1.79       0.00       0.04      0.000
3:17am             31          0          0         27         64       76.4       24.0      29.53       24.0        361       2599      -1934      -1.76       0.00       0.04      0.000
3:18am             31          0          0         27         64       76.4       24.0      29.53       24.0        361       2599      -1934      -1.73       0.00       0.04      0.000
3:19am             31          0          0         27         64       76.4       24.0      29.53       24.0        361       2599      -1934      -1.70       0.00       0.04      0.000
3:20am             31          0          0         27         64       76.4       23.9      29.53       23.9        361       2597      -1941      -1.77       0.00       0.04      0.000
3:21am             31          0          0         27         64       76.4       23.9      29.53       23.9        361       2597      -1941      -1.74       0.00       0.04      0.000
3:22am             31          0          0         27         64       76.4       23.9      29.53       23.9        362       2597      -1939      -1.71       0.00       0.04      0.000
3:23am             31          0          0         27         64       76.4       23.8      29.53       23.8        361       2596      -1947      -1.78       0.00       0.04      0.000
3:24am             31          0          0         27         66       76.4       23.8      29.53       23.8        361       2421      -1948      -1.75       0.00       0.04      0.000
3:25am             31          0          0         27         66       76.4       23.8      29.53       23.8        360       2421      -1950      -1.72       0.00       0.04      0.000
3:26am             31          0          0         27         66       76.4       23.7      29.53       23.7        359       2420      -1958      -1.79       0.00       0.03      0.000
3:27am             31          0          0         27         66       76.4       23.7      29.54       23.7        358       2420      -1959      -1.76       0.00       0.03      0.000
3:28am             31          0          0         27         66       76.4       23.7      29.54       23.7        358       2420      -1959      -1.73       0.00       0.03      0.000
3:29am             31          0          0         27         66       76.4       23.6      29.54       23.6        358       2419      -1966      -1.80       0.00       0.03      0.000
3:30am             31          0          0         27         66       76.4       23.6      29.54       23.6        358       2419      -1966      -1.77       0.00       0.03      0.000
3:31am             31          0          0         27         66       76.4       23.6      29.54       23.6        358       2419      -1966      -1.74       0.00       0.03      0.000
3:32am             31          0          0         27         67       76.4       23.5      29.54       23.5        357       2332      -1975      -1.81       0.00       0.03      0.000
3:33am             31          0          0         27         68       76.4       23.5      29.54       23.5        357       2248      -1975      -1.78       0.00       0.03      0.000
3:34am             31          0          0         27         68       76.4       23.5      29.54       23.5        358       2248      -1973      -1.75       0.00       0.03      0.000
3:35am             31          0          0         27         67       76.4       23.5      29.54       23.5        357       2332      -1975      -1.73       0.00       0.03      0.000
3:36am             31          0          0         27         66       76.4       23.4      29.54       23.4        357       2417      -1982      -1.80       0.00       0.03      0.000
3:37am             31          0          0         27         65       76.4       23.4      29.54       23.4        357       2504      -1982      -1.77       0.00       0.03      0.000
3:38am             31          0          0         27         65       76.4       23.5      29.54       23.5        356       2505      -1976      -1.64       0.00       0.03      0.000
3:39am             31          0          0         27         65       76.4       23.4      29.54       23.4        356       2504      -1983      -1.71       0.00       0.03      0.000
3:40am             31          0          0         27         65       76.4       23.4      29.54       23.4        356       2504      -1983      -1.68       0.00       0.03      0.000
3:41am             31          0          0         27         65       76.4       23.5      29.54       23.5        356       2505      -1976      -1.55       0.00       0.03      0.000
3:42am             31          0          0         27         66       76.4       23.5      29.54       23.5        356       2418      -1976      -1.53       0.00       0.03      0.000
3:43am             31          0          0         27         65       76.4       23.4      29.54       23.4        356       2504      -1983      -1.60       0.00       0.03      0.000
3:44am             31          0          0         27         65       76.4       23.4      29.54       23.4        356       2504      -1983      -1.58       0.00       0.03      0.000
3:45am             31          0          0         27         65       76.4       23.5      29.54       23.5        355       2505      -1977      -1.45       0.00       0.03      0.000
3:46am             31          0          0         27         65       76.4       23.5      29.54       23.5        355       2505      -1977      -1.43       0.00       0.03      0.000
3:47am             31          0          0         27         65       76.4       23.5      29.54       23.5        356       2505      -1976      -1.40       0.00       0.03      0.000
3:48am             31          0          0         27         65       76.4       23.5      29.54       23.5        355       2505      -1977      -1.38       0.00       0.03      0.000
3:49am             31          0          0         27         66       76.4       23.5      29.54       23.5        356       2418      -1976      -1.36       0.00       0.03      0.000
3:50am             31          0          0         27         66       76.4       23.5      29.54       23.5        356       2418      -1976      -1.34       0.00       0.03      0.000
3:51am             31          0          0         27         67       76.4       23.4      29.54       23.4        356       2331      -1983      -1.41       0.00       0.03      0.000
3:52am             31          0          0         27         67       76.4       23.4      29.54       23.4        355       2331      -1984      -1.39       0.00       0.03      0.000
3:53am             31          0          0         27         67       76.4       23.3      29.54       23.3        355       2330      -1991      -1.46       0.00       0.03      0.000
3:54am             31          0          0         27         67       76.4       23.3      29.54       23.3        355       2330      -1991      -1.44       0.00       0.03      0.000
3:55am             31          0          0         27         67       76.4       23.3      29.54       23.3        355       2330      -1991      -1.42       0.00       0.03      0.000
3:56am             31          0          0         27         67       76.4       23.3      29.54       23.3        355       2330      -1991      -1.40       0.00       0.03      0.000
3:57am             31          0          0         27         67       76.4       23.3      29.54       23.3        355       2330      -1991      -1.37       0.00       0.03      0.000
3:58am             31          0          0         27         67       76.4       23.2      29.54       23.2        355       2329      -1998      -1.45       0.00       0.03      0.000
3:59am             31          0          0         27         67       76.4       23.2      29.54       23.2        355       2329      -1998      -1.42       0.00       0.03      0.000
4:00am             31          0          0         27         68       76.4       23.2      29.54       23.2        354       2245      -2000      -1.40       0.00       0.03      0.000
4:01am             31          0          0         27         68       76.4       23.1      29.54       23.1        355       2244      -2006      -1.48       0.00       0.02      0.000
4:02am             31          0          0         27         68       76.4       23.2      29.54       23.2        354       2245      -2000      -1.35       0.00       0.02      0.000
4:03am             31          0          0         27         68       76.4       23.1      29.54       23.1        354       2244      -2007      -1.43       0.00       0.02      0.000
4:04am             31          0          0         27         68       76.4       23.1      29.54       23.1        354       2244      -2007      -1.41       0.00       0.02      0.000
4:05am             31          0          0         27         68       76.4       23.1      29.54       23.1        354       2244      -2007      -1.38       0.00       0.02      0.000
4:06am             31          0          0         27         68       76.4       23.1      29.54       23.1        354       2244      -2007      -1.36       0.00       0.02      0.000
4:07am             31          0          0         27         69       76.4       23.1      29.54       23.1        354       2161      -2007      -1.34       0.00       0.02      0.000
4:08am             31          0          0         27         69       76.4       23.0      29.54       23.0        353       2160      -2015      -1.42       0.00       0.02      0.000
4:09am             31          0          0         27         69       76.4       23.1      29.54       23.1        353       2161      -2008      -1.29       0.00       0.02      0.000
4:10am             31          0          0         27         69       76.4       23.1      29.54       23.1        354       2161      -2007      -1.27       0.00       0.02      0.000
4:11am             31          0          0         27         69       76.4       23.1      29.54       23.1        354       2161      -2007      -1.25       0.00       0.02      0.000
4:12am             31          0          0         27         68       76.4       23.1      29.54       23.1        353       2244      -2008      -1.23       0.00       0.02      0.000
4:13am             31          0          0         27         67       76.4       23.1      29.54       23.1        353       2328      -2008      -1.21       0.00       0.02      0.000
4:14am             31          0          0         27         66       76.4       23.2      29.54       23.2        352       2415      -2002      -1.09       0.00       0.02      0.000
4:15am             31          0          0         27         66       76.4       23.2      29.54       23.2        351       2415      -2003      -1.07       0.00       0.02      0.000
4:16am             31          0          0         27         66       76.4       23.2      29.54       23.2        351       2415      -2003      -1.06       0.00       0.02      0.000
4:17am             31          0          0         27         66       76.4       23.3      29.54       23.3        351       2416      -1996      -0.94       0.00       0.02      0.000
4:18am             31          0          0         27         66       76.4       23.4      29.55       23.4        349       2417      -1992      -0.82       0.00       0.02      0.000
4:19am             31          0          0         27         67       76.4       23.3      29.55       23.3        348       2330      -2000      -0.91       0.00       0.02      0.000
4:20am             31          0          0         27         67       76.4       23.4      29.55       23.4        347       2331      -1994      -0.79       0.00       0.02      0.000
4:21am             31          0          0         27         67       76.4       23.3      29.55       23.3        346       2330      -2003      -0.88       0.00       0.02      0.000
4:22am             31          0          0         27         68       76.4       23.3      29.55       23.3        346       2246      -2003      -0.87       0.00       0.02      0.000
4:23am             31          0          0         27         68       76.4       23.3      29.55       23.3        347       2246      -2002      -0.85       0.00       0.02      0.000
4:24am             31          0          0         27         68       76.4       23.3      29.55       23.3        347       2246      -2002      -0.84       0.00       0.02      0.000
4:25am             31          0          0         27         69       76.4       23.2      29.55       23.2        347       2162      -2009      -0.92       0.00       0.02      0.000
4:26am             31          0          0         27         69       76.4       23.2      29.55       23.2        348       2162      -2008      -0.91       0.00       0.02      0.000
4:27am             31          0          0         27         69       76.4       23.1      29.55       23.1        349       2161      -2014      -0.99       0.00       0.02      0.000
4:28am             31          0          0         27         69       76.4       23.1      29.55       23.1        348       2161      -2015      -0.98       0.00       0.02      0.000
4:29am             31          0          0         27         70       76.4       23.1      29.55       23.1        348       2078      -2015      -0.96       0.00       0.02      0.000
4:30am             31          0          0         27         71       76.4       23.0      29.55       23.0        347       1996      -2023      -1.04       0.00       0.02      0.000
4:31am             31          0          0         27         70       76.4       23.0      29.55       23.0        348       2077      -2022      -1.03       0.00       0.01      0.000
4:32am             31          0          0         27         70       76.4       23.0      29.55       23.0        348       2077      -2022      -1.01       0.00       0.01      0.000
4:33am             31          0          0         27         69       76.6       23.0      29.55       23.0        347       2160      -2023      -0.99       0.00       0.01      0.000
4:34am             31          0          0         27         68       76.6       23.0      29.55       23.0        347       2243      -2023      -0.98       0.00       0.01      0.000
4:35am             31          0          0         27         67       76.6       23.0      29.55       23.0        346       2327      -2024      -0.96       0.00       0.01      0.000
4:36am             31          0          0         27         67       76.6       22.9      29.55       22.9        345       2326      -2033      -1.04       0.00       0.01      0.000
4:37am             31          0          0         27         68       76.6       23.0      29.55       23.0        344       2243      -2027      -0.92       0.00       0.01      0.000
4:38am             31          0          0         27         68       76.6       22.9      29.55       22.9        344       2242      -2034      -1.01       0.00       0.01      0.000
4:39am             31          0          0         27         68       76.6       23.0      29.55       23.0        344       2243      -2027      -0.89       0.00       0.01      0.000
4:40am             31          0          0         27         69       76.6       22.9      29.55       22.9        343       2159      -2035      -0.98       0.00       0.01      0.000
4:41am             31          0          0         27         69       76.6       23.0      29.55       23.0        343       2160      -2028      -0.86       0.00       0.01      0.000
4:42am             31          0          0         27         70       76.6       22.9      29.55       22.9        343       2077      -2035      -0.95       0.00       0.01      0.000
4:43am             31          0          0         27         70       76.6       22.9      29.55       22.9        343       2077      -2035      -0.93       0.00       0.01      0.000
4:44am             31          0          0         27         70       76.4       22.9      29.55       22.9        343       2077      -2035      -0.92       0.00       0.01      0.000
4:45am             31          0          0         27         70       76.4       22.9      29.55       22.9        343       2077      -2035      -0.90       0.00       0.01      0.000
4:46am             31          0          0         27         71       76.6       22.8      29.55       22.8        342       1995      -2043      -0.98       0.00       0.01      0.000
4:47am             31          0          0         27         71       76.4       22.8      29.55       22.8        343       1995      -2042      -0.97       0.00       0.01      0.000
4:48am             31          0          0         27         71       76.4       22.7      29.55       22.7        342       1994      -2050      -1.05       0.00       0.01      0.000
4:49am             31          0          0         27         71       76.4       22.7      29.55       22.7        342       1994      -2050      -1.03       0.00       0.01      0.000
4:50am             31          0          0         26         71       76.6       22.7      29.55       22.7        342       1994      -2050      -1.01       0.00       0.01      0.000
4:51am             31          0          0         27         71       76.6       22.6      29.55       22.6        341       1993      -2059      -1.10       0.00       0.01      0.000
4:52am             31          0          0         27         71       76.6       22.5      29.55       22.5        341       1992      -2066      -1.18       0.00       0.01      0.000
4:53am             31          0          0         27         71       76.6       22.5      29.55       22.5        341       1992      -2066      -1.16       0.00       0.01      0.000
4:54am             31          0          0         27         72       76.6       22.5      29.55       22.5        340       1912      -2067      -1.14       0.00       0.01      0.000
4:55am             31          0          0         27         72       76.6       22.4      29.55       22.4        340       1911      -2074      -1.22       0.00       0.01      0.000
4:56am             31          0          0         27         72       76.6       22.4      29.55       22.4        339       1911      -2075      -1.20       0.00       0.01      0.000
4:57am             31          0          0         27         73       76.6       22.3      29.55       22.3        339       1831      -2083      -1.28       0.00       0.01      0.000
4:58am             31          0          0         27         73       76.6       22.3      29.55       22.3        339       1831      -2083      -1.26       0.00       0.01      0.000
4:59am             31          0          0         27         74       76.6       22.3      29.56       22.3        339       1753      -2084      -1.24       0.00       0.01      0.000
5:00am             31          0          0         27         74       76.6       22.2      29.56       22.2        338       1753      -2092      -1.32       0.00       0.01      0.000
5:01am             31          0          0         27         74       76.6       22.2      29.56       22.2        337       1753      -2093      -1.29       0.00       0.01      0.000
5:02am             31          0          0         27         74       76.6       22.2      29.56       22.2        336       1753      -2094      -1.27       0.00       0.01      0.000
5:03am             31          0          0         27         74       76.6       22.2      29.56       22.2        336       1753      -2094      -1.25       0.00       0.01      0.000
5:04am             31          0          0         27         74       76.6       22.2      29.56       22.2        336       1753      -2094      -1.23       0.00       0.01      0.000
5:05am             31          0          0         27         74       76.6       22.0      29.56       22.0        334       1751      -2111      -1.41       0.00       0.01      0.000
5:06am             31          0          0         27         74       76.6       22.0      29.56       22.0        334       1751      -2111      -1.38       0.00       0.01      0.000
5:07am             31          0          0         27         73       76.6       22.0      29.56       22.0        332       1829      -2113      -1.36       0.00       0.01      0.000
5:08am             31          0          0         27         73       76.6       22.0      29.56       22.0        332       1829      -2113      -1.34       0.00       0.01      0.000
5:09am             31          0          0         27         73       76.6       21.9      29.56       21.9        330       1828      -2123      -1.42       0.00       0.01      0.000
5:10am             31          0          0         27         71       76.6       21.8      29.56       21.8        330       1985      -2130      -1.49       0.00       0.01      0.000
5:11am             31          0          0         27         71       76.6       21.8      29.57       21.8        327       1985      -2134      -1.47       0.00       0.01      0.000
5:12am             31          0          0         27         71       76.6       21.8      29.57       21.8        327       1985      -2134      -1.44       0.00       0.01      0.000
5:13am             31          0          0         27         70       76.6       21.8      29.57       21.8        327       2066      -2135      -1.42       0.00       0.01      0.000
5:14am             31          0          0         27         70       76.6       21.8      29.57       21.8        327       2066      -2135      -1.40       0.00       0.01      0.000
5:15am             31          0          0         27         70       76.6       21.8      29.57       21.8        327       2066      -2135      -1.37       0.00       0.01      0.000
5:16am             31          0          0         27         70       76.6       21.7      29.57       21.7        327       2065      -2142      -1.45       0.00       0.01      0.000
5:17am             31          0          0         27         70       76.6       21.7      29.57       21.7        326       2065      -2143      -1.43       0.00       0.01      0.000
5:18am             31          0          0         27         70       76.6       21.7      29.57       21.7        327       2065      -2142      -1.40       0.00       0.01      0.000
5:19am             31          0          0         27         71       76.6       21.8      29.57       21.8        327       1985      -2135      -1.28       0.00       0.01      0.000
5:20am             31          0          0         27         71       76.6       21.7      29.57       21.7        327       1984      -2142      -1.36       0.00       0.01      0.000
5:21am             31          0          0         27         71       76.6       21.8      29.57       21.8        327       1985      -2135      -1.24       0.00       0.01      0.000
5:22am             31          0          0         27         71       76.6       21.7      29.57       21.7        327       1984      -2142      -1.31       0.00       0.01      0.000
5:23am             31          0          0         27         71       76.6       21.7      29.57       21.7        327       1984      -2142      -1.29       0.00       0.01      0.000
5:24am             31          0          0         27         72       76.6       21.7      29.57       21.7        327       1905      -2142      -1.27       0.00       0.01      0.000
5:25am             31          0          0         27         72       76.6       21.7      29.57       21.7        327       1905      -2142      -1.25       0.00       0.01      0.000
5:26am             31          0          0         26         72       76.6       21.7      29.57       21.7        326       1905      -2143      -1.23       0.00       0.01      0.000
5:27am             31          0          0         27         71       76.6       21.7      29.57       21.7        326       1984      -2143      -1.21       0.00       0.01      0.000
5:28am             31          0          0         27         71       76.6       21.7      29.57       21.7        326       1984      -2143      -1.19       0.00       0.01      0.000
5:29am             31          0          0         27         71       76.6       21.7      29.57       21.7        326       1984      -2143      -1.17       0.00       0.01      0.000
5:30am             31          0          0         27         72       76.6       21.7      29.57       21.7        325       1905      -2144      -1.15       0.00       0.01      0.000
5:31am             31          0          0         27         72       76.6       21.7      29.57       21.7        325       1905      -2144      -1.13       0.00       0.00      0.000
5:32am             31          0          0         27         72       76.6       21.7      29.57       21.7        324       1905      -2145      -1.11       0.00       0.00      0.000
5:33am             31          0          0         27         72       76.6       21.7      29.57       21.7        324       1905      -2145      -1.09       0.00       0.00      0.000
5:34am             31          0          0         27         72       76.6       21.7      29.57       21.7        324       1905      -2145      -1.08       0.00       0.00      0.000
5:35am             31          0          0         27         73       76.6       21.7      29.57       21.7        324       1826      -2145      -1.06       0.00       0.00      0.000
5:36am             31          0          0         26         73       76.6       21.7      29.57       21.7        324       1826      -2145      -1.04       0.00       0.00      0.000
5:37am             31          0          0         26         73       76.6       21.7      29.57       21.7        324       1826      -2145      -1.02       0.00       0.00      0.000
5:38am             31          0          0         27         73       76.6       21.6      29.57       21.6        324       1825      -2153      -1.11       0.00       0.00      0.000
5:39am             31          0          0         27         73       76.6       21.6      29.57       21.6        323       1825      -2154      -1.09       0.00       0.00      0.000
5:40am             31          0          0         27         74       76.6       21.6      29.57       21.6        322       1748      -2155      -1.07       0.00       0.00      0.000
5:41am             31          0          0         27         74       76.6       21.6      29.57       21.6        321       1748      -2156      -1.05       0.00       0.00      0.000
5:42am             31          0          0         26         75       76.6       21.6      29.57       21.6        321       1671      -2156      -1.04       0.00       0.00      0.000
5:43am             31          0          0         26         74       76.6       21.6      29.58       21.6        320       1748      -2157      -1.02       0.00       0.00      0.000
5:44am             31          0          0         27         73       76.6       21.5      29.58       21.5        320       1824      -2164      -1.10       0.00       0.00      0.000
5:45am             31          0          0         27         73       76.6       21.6      29.58       21.6        319       1825      -2158      -0.98       0.00       0.00      0.000
5:46am             31          0          0         27         73       76.6       21.5      29.58       21.5        319       1824      -2166      -1.06       0.00       0.00      0.000
5:47am             31          0          0         26         73       76.6       21.5      29.58       21.5        319       1824      -2166      -1.05       0.00       0.00      0.000
5:48am             31          0          0         26         73       76.6       21.5      29.58       21.5        319       1824      -2166      -1.03       0.00       0.00      0.000
5:49am             31          0          0         27         73       76.6       21.5      29.58       21.5        320       1824      -2164      -1.01       0.00       0.00      0.000
5:50am             31          0          0         26         73       76.6       21.5      29.57       21.5        321       1824      -2163      -1.00       0.00       0.00      0.000
5:51am             31          0          0         26         72       76.6       21.5      29.57       21.5        321       1903      -2163      -0.98       0.00       0.00      0.000
5:52am             31          0          0         27         72       76.6       21.5      29.57       21.5        322       1903      -2162      -0.96       0.00       0.00      0.000
5:53am             31          0          0         27         72       76.6       21.5      29.57       21.5        321       1903      -2163      -0.95       0.00       0.00      0.000
5:54am             31          0          0         27         72       76.6       21.5      29.57       21.5        321       1903      -2163      -0.93       0.00       0.00      0.000
5:55am             31          0          0         27         72       76.6       21.5      29.57       21.5        321       1903      -2163      -0.92       0.00       0.00      0.000
5:56am             31          0          0         26         72       76.6       21.5      29.58       21.5        320       1903      -2164      -0.90       0.00       0.00      0.000
5:57am             31          0          0         26         73       76.6       21.4      29.58       21.4        319       1824      -2173      -0.99       0.00       0.00      0.000
5:58am             31          0          0         27         73       76.6       21.5      29.58       21.5        319       1824      -2166      -0.87       0.00       0.00      0.000
5:59am             31          0          0         27         73       76.6       21.5      29.58       21.5        318       1824      -2167      -0.86       0.00       0.00      0.000
6:00am             31          0          0         26         73       76.6       21.5      29.58       21.5        320       1824      -2164      -0.84       0.00       0.00      0.000
6:01am             31          0          0         27         73       76.6       21.4      29.58       21.4        319       1824      -2173      -0.93       0.00       0.00      0.000
6:02am             31          0          0         26         73       76.6       21.4      29.58       21.4        318       1824      -2174      -0.91       0.00       0.00      0.000
6:03am             31          0          0         26         74       76.6       21.4      29.58       21.4        318       1746      -2174      -0.90       0.00       0.00      0.000
6:04am             31          0          0         26         74       76.6       21.4      29.58       21.4        317       1746      -2175      -0.88       0.00       0.00      0.000
6:05am             31          0          0         26         75       76.6       21.4      29.58       21.4        316       1670      -2176      -0.87       0.00       0.00      0.000
6:06am             31          0          0         26         75       76.6       21.3      29.58       21.3        314       1669      -2187      -0.95       0.00       0.00      0.000
6:07am             31          0          0         26         75       76.6       21.3      29.58       21.3        313       1669      -2188      -0.94       0.00       0.00      0.000
6:08am             31          0          0         26         75       76.8       21.3      29.58       21.3        312       1669      -2189      -0.92       0.00       0.00      0.000
6:09am             31          0          0         26         75       76.8       21.2      29.58       21.2        313       1668      -2195      -1.01       0.00       0.00      0.000
6:10am             31          0          0         26         75       76.8       21.2      29.58       21.2        313       1668      -2195      -0.99       0.00       0.00      0.000
6:11am             31          0          0         26         75       76.8       21.2      29.58       21.2        312       1668      -2196      -0.97       0.00       0.00      0.000
6:12am             31          0          0         26         75       76.8       21.1      29.58       21.1        312       1667      -2204      -1.06       0.00       0.00      0.000
6:13am             31          0          0         27         75       76.8       21.1      29.58       21.1        312       1667      -2204      -1.04       0.00       0.00      0.000
6:14am             31          0          0         26         75       76.8       21.1      29.58       21.1        313       1667      -2202      -1.02       0.00       0.00      0.000
6:15am             31          0          0         27         74       76.8       21.0      29.58       21.0        313       1743      -2210      -1.10       0.00       0.00      0.000
6:16am             31          0          0         27         74       76.8       21.0      29.58       21.0        312       1743      -2211      -1.08       0.00       0.00      0.000
6:17am             31          0          0         27         73       76.8       21.0      29.58       21.0        312       1820      -2211      -1.07       0.00       0.00      0.000
6:18am             31          0          0         27         73       76.8       21.0      29.59       21.0        311       1820      -2212      -1.05       0.00       0.00      0.000
6:19am             31          0          0         26         73       76.8       21.0      29.59       21.0        311       1820      -2212      -1.03       0.00       0.00      0.000
6:20am             31          0          0         26         74       76.8       21.0      29.59       21.0        311       1743      -2212      -1.01       0.00       0.00      0.000
6:21am             31          0          0         26         75       76.8       21.1      29.59       21.1        311       1667      -2205      -0.90       0.00       0.00      0.000
6:22am             31          0          0         26         76       76.8       21.1      29.59       21.1        311       1592      -2205      -0.88       0.00       0.00      0.000
6:23am             31          0          0         26         76       76.8       21.1      29.59       21.1        311       1592      -2205      -0.87       0.00       0.00      0.000
6:24am             31          0          0         26         75       76.8       21.1      29.59       21.1        311       1667      -2205      -0.85       0.00       0.00      0.000
6:25am             31          0          0         26         76       76.6       21.1      29.59       21.1        311       1592      -2205      -0.84       0.00       0.00      0.000
6:26am             31          0          0         26         75       76.6       21.0      29.59       21.0        311       1666      -2212      -0.93       0.00       0.00      0.000
6:27am             31          0          0         26         75       76.6       21.1      29.59       21.1        311       1667      -2205      -0.81       0.00       0.00      0.000
6:28am             31          0          0         26         74       76.6       21.0      29.59       21.0        311       1743      -2212      -0.90       0.00       0.00      0.000
6:29am             31          0          0         26         74       76.6       21.0      29.59       21.0        311       1743      -2212      -0.88       0.00       0.00      0.000
6:30am             31          0          0         26         74       76.8       21.0      29.59       21.0        310       1743      -2213      -0.87       0.00       0.00      0.000
6:31am             31          0          0         26         74       76.8       20.9      29.59       20.9        310       1742      -2220      -0.95       0.00       0.00      0.000
6:32am             31          0          0         26         74       76.8       20.9      29.59       20.9        310       1742      -2220      -0.94       0.00       0.00      0.000
6:33am             31          0          0         26         75       76.8       21.0      29.59       21.0        309       1666      -2214      -0.82       0.00       0.00      0.000
6:34am             31          0          0         27         75       76.8       20.9      29.59       20.9        309       1666      -2221      -0.91       0.00       0.00      0.000
6:35am             31          0          0         26         75       76.8       21.0      29.59       21.0        308       1666      -2215      -0.79       0.00       0.00      0.000
6:36am             31          0          0         26         75       76.8       20.9      29.59       20.9        307       1666      -2224      -0.88       0.00       0.00      0.000
6:37am             31          0          0         26         75       76.8       20.9      29.59       20.9        307       1666      -2224      -0.86       0.00       0.00      0.000
6:38am             31          0          0         26         76       76.8       20.9      29.59       20.9        305       1590      -2227      -0.85       0.00       0.00      0.000
6:39am             31          0          0         26         76       76.8       20.9      29.59       20.9        304       1590      -2228      -0.83       0.00       0.00      0.000
6:40am             31          0          0         26         76       76.8       20.9      29.60       20.9        302       1590      -2231      -0.82       0.00       0.00      0.000
6:41am             31          0          0         26         76       76.8       20.9      29.60       20.9        302       1590      -2231      -0.81       0.00       0.00      0.000
6:42am             31          0          0         26         76       76.8       20.8      29.60       20.8        302       1589      -2238      -0.89       0.00       0.00      0.000
6:43am             31          0          0         26         76       76.8       20.8      29.60       20.8        302       1589      -2238      -0.88       0.00       0.00      0.000
6:44am             31          0          0         26         77       76.8       20.8      29.60       20.8        302       1515      -2238      -0.86       0.00       0.00      0.000
6:45am             31          0          0         27         77       76.8       20.8      29.60       20.8        301       1515      -2239      -0.85       0.00       0.00      0.000
6:46am             31          0          0         27         77       76.8       20.8      29.60       20.8        300       1515      -2240      -0.84       0.00       0.00      0.000
6:47am             31          0          0         28         76       76.8       20.8      29.60       20.8        300       1589      -2240      -0.82       0.00       0.00      0.000
6:48am             31          0          0         26         76       76.8       20.8      29.60       20.8        298       1589      -2243      -0.81       0.00       0.00      0.000
6:49am             31          0          0         26         76       76.8       20.7      29.60       20.7        298       1589      -2250      -0.89       0.00       0.00      0.000
6:50am             31          0          0         26         76       76.8       20.7      29.60       20.7        297       1589      -2251      -0.88       0.00       0.00      0.000
6:51am             31          0          0         27         76       76.8       20.7      29.60       20.7        297       1589      -2251      -0.87       0.00       0.00      0.000
6:52am             31          0          0         26         76       76.8       20.7      29.60       20.7        297       1589      -2251      -0.85       0.00       0.00      0.000
6:53am             31          0          0         26         75       76.8       20.7      29.60       20.7        296       1664      -2252      -0.84       0.00       0.00      0.000
6:54am             31          0          0         26         75       76.8       20.7      29.60       20.7        296       1664      -2252      -0.82       0.00       0.00      0.000
6:55am             31          0          0         26         75       76.8       20.7      29.60       20.7        296       1664      -2252      -0.81       0.00       0.00      0.000
6:56am             31          0          0         27         75       76.8       20.7      29.60       20.7        296       1664      -2252      -0.80       0.00       0.00      0.000
6:57am             31          0          0         26         75       76.8       20.7      29.60       20.7        296       1664      -2252      -0.78       0.00       0.00      0.000
6:58am             31          0          0         26         75       76.8       20.7      29.60       20.7        296       1664      -2252      -0.77       0.00       0.00      0.000
6:59am             31          0          0         26         75       76.8       20.7      29.60       20.7        296       1664      -2252      -0.76       0.00       0.00      0.000
7:00am             31          0          0         26         75       76.8       20.8      29.60       20.8        296       1665      -2245      -0.65       0.00       0.00      0.000
7:01am             31          0          0         27         74       76.8       20.8      29.60       20.8        296       1741      -2245      -0.64       0.00       0.00      0.000
7:02am             31          0          0         26         75       76.8       20.8      29.60       20.8        296       1665      -2245      -0.62       0.00       0.00      0.000
7:03am             31          0          0         26         75       76.8       20.8      29.60       20.8        294       1665      -2247      -0.61       0.00       0.00      0.000
7:04am             31          0          0         26         75       76.8       20.9      29.60       20.9        294       1666      -2240      -0.50       0.00       0.00      0.000
7:05am             31          0          0         26         74       76.8       20.8      29.60       20.8        294       1741      -2248      -0.60       0.00       0.00      0.000
7:06am             31          0          0         26         74       76.8       20.9      29.60       20.9        294       1742      -2241      -0.49       0.00       0.00      0.000
7:07am             31          0          0         26         74       76.8       20.9      29.61       20.9        292       1742      -2243      -0.48       0.00       0.00      0.000
7:08am             31          0          0         26         74       76.8       20.9      29.61       20.9        291       1742      -2245      -0.47       0.00       0.00      0.000
7:09am             31          0          0         26         74       76.8       21.0      29.61       21.0        290       1743      -2238      -0.36       0.00       0.00      0.000
7:10am             31          0          0         26         75       76.8       21.0      29.61       21.0        290       1666      -2238      -0.36       0.00       0.00      0.000
7:11am             31          0          0         27         75       76.8       21.0      29.61       21.0        288       1666      -2241      -0.35       0.00       0.00      0.000
7:12am             31          0          0         26         76       76.8       21.0      29.61       21.0        287       1591      -2242      -0.34       0.00       0.00      0.000
7:13am             31          0          0         26         76       76.8       21.0      29.61       21.0        286       1591      -2243      -0.34       0.00       0.00      0.000
7:14am             31          0          0         26         76       76.8       21.0      29.61       21.0        286       1591      -2243      -0.33       0.00       0.00      0.000
7:15am             31          0          0         26         76       76.8       21.0      29.61       21.0        285       1591      -2244      -0.33       0.00       0.00      0.000
7:16am             31          0          0         26         76       76.8       21.0      29.61       21.0        284       1591      -2245      -0.32       0.00       0.00      0.000
7:17am             31          0          0         26         75       76.8       21.0      29.61       21.0        284       1666      -2245      -0.32       0.00       0.00      0.000
7:18am             31          0          0         26         75       76.8       21.0      29.61       21.0        283       1666      -2246      -0.31       0.00       0.00      0.000
7:19am             31          0          0         26         74       76.8       21.1      29.61       21.1        283       1744      -2239      -0.21       0.00       0.00      0.000
7:20am             31          0          0         26         74       76.8       21.1      29.61       21.1        283       1744      -2239      -0.20       0.00       0.00      0.000
7:21am             31          0          0         26         74       76.8       21.1      29.61       21.1        283       1744      -2239      -0.20       0.00       0.00      0.000
7:22am             31          0          0         26         74       76.8       21.2      29.61       21.2        283       1744      -2232      -0.10       0.00       0.00      0.000
7:23am             31          0          0         26         75       76.8       21.2      29.61       21.2        283       1668      -2232      -0.10       0.00       0.00      0.000
7:24am             31          0          0         26         75       76.8       21.2      29.61       21.2        283       1668      -2232      -0.10       0.00       0.00      0.000
7:25am             31          0          0         26         75       76.8       21.3      29.62       21.3        283       1669      -2226       0.00       0.00       0.00      0.000
7:26am             31          0          0         26         75       76.8       21.4      29.61       21.4        283       1670      -2218       0.10       0.00       0.00      0.000
7:27am             31          0          0         26         76       76.8       21.4      29.61       21.4        283       1594      -2218       0.10       0.00       0.00      0.000
7:28am             31          0          0         26         76       76.8       21.5      29.61       21.5        283       1595      -2210       0.20       0.00       0.00      0.000
7:29am             31          0          0         26         76       76.8       21.6      29.61       21.6        283       1595      -2203       0.30       0.00       0.00      0.000
7:30am             31          0          0         26         76       76.8       21.6      29.61       21.6        283       1595      -2203       0.29       0.00       0.00      0.000
7:31am             31          0          0         26         76       76.8       21.7      29.62       21.7        283       1596      -2197       0.38       0.00       0.00      0.000
7:32am             31          0          0         26         76       76.8       21.8      29.62       21.8        283       1597      -2190       0.48       0.00       0.00      0.000
7:33am             31          0          0         26         76       76.8       21.9      29.62       21.9        282       1598      -2184       0.57       0.00       0.00      0.000
7:34am             31          0          0         26         76       77.0       22.0      29.62       22.0        282       1598      -2177       0.66       0.00       0.00      0.000
7:35am             31          0          0         26         76       77.0       22.1      29.62       22.1        282       1599      -2170       0.75       0.00       0.00      0.000
7:36am             31          0          0         26         76       77.0       22.2      29.62       22.2        282       1600      -2162       0.83       0.00       0.00      0.000
7:37am             31          0          0         26         76       77.0       22.3      29.62       22.3        282       1601      -2155       0.92       0.00       0.00      0.000
7:38am             31          0          0         26         75       77.0       22.4      29.62       22.4        282       1677      -2148       1.00       0.00       0.00      0.000
7:39am             31          0          0         26         76       77.0       22.6      29.62       22.6        282       1603      -2134       1.18       0.00       0.00      0.000
7:40am             31          0          0         26         76       77.0       22.7      29.62       22.7        282       1604      -2126       1.26       0.00       0.00      0.000
7:41am             31          0          0         26         75       77.0       22.8      29.62       22.8        282       1680      -2119       1.34       0.00       0.00      0.000
7:42am             31          0          0         26         73       77.0       23.0      29.62       23.0        282       1837      -2105       1.52       0.00       0.00      0.000
7:43am             31          0          0         26         72       77.0       23.1      29.62       23.1        282       1917      -2098       1.59       0.00       0.00      0.000
7:44am             31          0          0         26         72       77.0       23.3      29.62       23.3        282       1919      -2083       1.77       0.00       0.00      0.000
7:45am             31          0          0         26         71       77.0       23.4      29.62       23.4        283       2000      -2075       1.83       0.00       0.00      0.000
7:46am             31          0          0         26         71       77.0       23.5      29.62       23.5        283       2001      -2068       1.91       0.00       0.00      0.000
7:47am             31          0          0         26         70       77.0       23.6      29.62       23.6        283       2083      -2061       1.97       0.00       0.00      0.000
7:48am             31          0          0         26         69       77.0       23.8      29.62       23.8        283       2168      -2046       2.14       0.00       0.00      0.000
7:49am             31          0          0         26         69       77.0       23.9      29.62       23.9        283       2169      -2039       2.20       0.00       0.00      0.000
7:50am             31          0          0         26         68       77.0       24.0      29.62       24.0        283       2253      -2032       2.27       0.00       0.00      0.000
7:51am            232          0          0         26         68       77.0       24.1      29.62       24.1        283       2254      -2025       2.33       0.00       0.00      0.000
7:52am            281          0          1         26         68       77.0       24.3      29.62       24.3        282       2256      -2012       2.48       0.00       0.00      0.000
7:53am            281          0          1         26         67       77.0       24.4      29.62       24.4        282       2342      -2005       2.54       0.00       0.00      0.000
7:54am            281          0          1         26         67       77.0       24.5      29.62       24.5        282       2343      -1997       2.60       0.00       0.00      0.000
7:55am            281          0          1         26         67       77.0       24.7      29.62       24.7        282       2345      -1983       2.76       0.00       0.00      0.000
7:56am            281          0          0         27         66       77.0       24.8      29.62       24.8        281       2433      -1977       2.81       0.00       0.00      0.000
7:57am            281          0          0         26         67       77.0       24.9      29.62       24.9        280       2348      -1971       2.86       0.00       0.00      0.000
7:58am            281          0          0         26         66       77.0       25.0      29.62       25.0        279       2435      -1965       2.91       0.00       0.00      0.000
7:59am            281          0          0         26         66       77.0       25.1      29.62       25.1        278       2436      -1959       2.96       0.00       0.00      0.000
8:00am            283          1          1         26         67       77.0       25.3      29.62       25.3        276       2352      -1947       3.11       0.00       0.00      0.000
8:01am            283          0          1         26         66       77.2       25.4      29.62       25.4        275       2439      -1941       3.16       0.00       0.00      0.000
8:02am            283          0          1         26         65       77.2       25.6      29.63       25.6        273       2529      -1929       3.31       0.00       0.00      0.000
8:03am            283          0          1         26         65       77.2       25.6      29.63       25.6        272       2529      -1930       3.25       0.00       0.00      0.000
8:04am            283          0          1         26         64       77.2       25.7      29.63       25.7        271       2619      -1925       3.30       0.00       0.00      0.000
8:05am            283          0          1         26         64       77.2       25.8      29.63       25.8        270       2620      -1919       3.34       0.00       0.00      0.000
8:06am            283          1          1         26         63       77.2       26.0      29.63       26.0        270       2713      -1905       3.48       0.00       0.00      0.000
8:07am            283          0          1         26         62       77.2       26.1      29.63       26.1        269       2806      -1899       3.53       0.00       0.00      0.000
8:08am            283          0          1         26         62       77.2       26.2      29.63       26.2        268       2807      -1893       3.57       0.00       0.00      0.000
8:09am            283          0          1         26         62       77.2       26.3      29.63       26.3        267       2808      -1887       3.61       0.00       0.00      0.000
8:10am            283          0          1         26         61       77.2       26.4      29.63       26.4        267       2903      -1880       3.65       0.00       0.00      0.000
8:11am            283          1          1         26         61       77.2       26.4      29.63       26.4        267       2903      -1880       3.58       0.00       0.00      0.000
8:12am            283          0          1         26         61       77.2       26.5      29.63       26.5        267       2904      -1873       3.63       0.00       0.00      0.000
8:13am            283          0          1         26         61       77.2       26.5      29.63       26.5        267       2904      -1873       3.57       0.00       0.00      0.000
8:14am            283          0          1         26         61       77.2       26.6      29.63       26.6        266       2905      -1867       3.61       0.00       0.00      0.000
8:15am            283          0          1         26         61       77.2       26.7      29.63       26.7        267       2907      -1859       3.65       0.00       0.00      0.000
8:16am            310          0          0         26         61       77.2       26.8      29.63       26.8        266       2908      -1853       3.69       0.00       0.00      0.000
8:17am            339          2          3         26         60       77.2       26.8      29.63       25.3        266       3002      -1853       3.62       0.00       0.00      0.000
8:18am            137          2          3         26         60       77.2       26.9      29.63       25.4        266       3004      -1846       3.66       0.00       0.00      0.000
8:19am            137          0          3         26         60       77.2       26.8      29.63       26.8        266       3002      -1853       3.51       0.00       0.00      0.000
8:20am            137          0          3         26         60       77.2       26.9      29.63       26.9        266       3004      -1846       3.55       0.00       0.00      0.000
8:21am            137          0          1         26         60       77.2       26.9      29.63       26.9        266       3004      -1846       3.49       0.00       0.00      0.000
8:22am            137          0          1         26         60       77.2       26.9      29.63       26.9        266       3004      -1846       3.43       0.00       0.00      0.000
8:23am            137          0          1         26         60       77.2       27.0      29.63       27.0        266       3005      -1839       3.47       0.00       0.00      0.000
8:24am            137          0          1         26         60       77.2       27.0      29.63       27.0        266       3005      -1839       3.42       0.00       0.00      0.000
8:25am            137          1          1         26         60       77.2       27.1      29.63       27.1        266       3007      -1832       3.46       0.00       0.00      0.000
8:26am            137          1          2         26         59       77.2       27.2      29.63       27.2        265       3104      -1826       3.50       0.00       0.00      0.000
8:27am            137          1          2         26         60       77.3       27.2      29.63       27.2        266       3008      -1824       3.44       0.00       0.00      0.000
8:28am            137          2          3         26         60       77.3       27.2      29.63       25.7        265       3008      -1826       3.39       0.00       0.00      0.000
8:29am            137          1          3         26         59       77.3       27.3      29.63       27.3        265       3106      -1818       3.43       0.00       0.00      0.000
8:30am            137          0          3         26         59       77.3       27.4      29.63       27.4        266       3107      -1810       3.47       0.00       0.00      0.000
8:31am            137          1          1         26         59       77.3       27.4      29.63       27.4        265       3107      -1811       3.41       0.00       0.00      0.000
8:32am            137          0          2         26         58       77.3       27.6      29.63       27.6        265       3208      -1797       3.56       0.00       0.00      0.000
8:33am            137          2          2         26         58       77.3       27.6      29.64       26.1        264       3208      -1798       3.49       0.00       0.00      0.000
8:34am            137          2          3         26         58       77.3       27.8      29.64       26.4        264       3210      -1784       3.63       0.00       0.00      0.000
8:35am            137          2          3         27         58       77.3       27.8      29.64       26.4        264       3210      -1784       3.58       0.00       0.00      0.000
8:36am            137          1          2         26         58       77.3       27.9      29.64       27.9        263       3212      -1778       3.61       0.00       0.00      0.000
8:37am            137          1          3         26         57       77.3       27.9      29.64       27.9        264       3311      -1777       3.55       0.00       0.00      0.000
8:38am            137          1          3         26         57       77.3       27.9      29.64       27.9        262       3311      -1779       3.50       0.00       0.00      0.000
8:39am             97          3          4         26         57       77.3       27.9      29.64       24.7        262       3311      -1779       3.44       0.00       0.00      0.000
8:40am             97          1          4         26         57       77.3       27.9      29.64       27.9        262       3311      -1779       3.38       0.00       0.00      0.000
8:41am             97          1          1         27         57       77.3       27.9      29.64       27.9        262       3311      -1779       3.32       0.00       0.00      0.000
8:42am             97          1          3         26         56       77.3       27.8      29.64       27.8        263       3411      -1785       3.17       0.00       0.00      0.000
8:43am             97          0          3         26         57       77.3       27.9      29.64       27.9        262       3311      -1779       3.22       0.00       0.00      0.000
8:44am            164          2          3         26         57       77.3       28.0      29.64       26.6        263       3313      -1771       3.26       0.00       0.00      0.000
8:45am            164          2          3         26         57       77.3       28.1      29.64       26.7        263       3314      -1764       3.31       0.00       0.00      0.000
8:46am            164          3          3         26         57       77.3       28.2      29.64       25.0        263       3316      -1757       3.36       0.00       0.00      0.000
8:47am            164          0          3         26         57       77.5       28.2      29.64       28.2        262       3316      -1758       3.30       0.00       0.00      0.000
8:48am            164          0          3         27         58       77.5       28.4      29.64       28.4        261       3219      -1745       3.44       0.00       0.00      0.000
8:49am            164          2          3         26         57       77.5       28.5      29.64       27.1        262       3320      -1737       3.49       0.00       0.00      0.000
8:50am            164          1          3         26         57       77.5       28.6      29.64       28.6        263       3322      -1729       3.52       0.00       0.00      0.000
8:51am            164          2          2         26         58       77.5       28.8      29.64       27.5        262       3225      -1716       3.67       0.00       0.00      0.000
8:52am            164          2          3         26         56       77.5       28.9      29.64       27.6        261       3428      -1710       3.71       0.00       0.00      0.000
8:53am            164          1          3         26         56       77.5       29.0      29.64       29.0        261       3429      -1704       3.74       0.00       0.00      0.000
8:54am            162          2          3         26         55       77.5       29.1      29.64       27.8        261       3534      -1695       3.78       0.00       0.00      0.000
8:55am            153          2          3         26         55       77.5       29.1      29.64       27.8        261       3534      -1695       3.72       0.00       0.00      0.000
8:56am            153          2          2         26         55       77.5       29.1      29.64       27.8        261       3534      -1695       3.66       0.00       0.00      0.000
8:57am            109          3          3         26         56       77.5       29.1      29.64       26.0        261       3431      -1695       3.60       0.00       0.00      0.000
8:58am            109          4          4         26         55       77.5       29.1      29.64       24.7        261       3534      -1695       3.54       0.00       0.00      0.000
8:59am            177          2          4         26         55       77.5       29.0      29.64       27.7        261       3533      -1704       3.38       0.00       0.00      0.000
9:00am            190          3          4         26         55       77.5       29.0      29.64       25.9        261       3533      -1704       3.32       0.00       0.00      0.000
9:01am            197          3          4         26         55       77.5       29.0      29.64       25.9        260       3533      -1705       3.27       0.00       0.00      0.000
9:02am            197          1          4         26         55       77.5       28.9      29.64       28.9        259       3531      -1713       3.12       0.00       0.00      0.000
9:03am            197          1          4         26         55       77.5       28.9      29.64       28.9        257       3531      -1715       3.06       0.00       0.00      0.000
9:04am            197          0          4         26         56       77.5       28.9      29.64       28.9        257       3428      -1715       3.01       0.00       0.00      0.000
9:05am            197          1          4         26         56       77.5       29.0      29.64       29.0        256       3429      -1709       3.06       0.00       0.00      0.000
9:06am            197          1          2         26         56       77.5       29.1      29.64       29.1        258       3431      -1700       3.11       0.00       0.00      0.000
9:07am            197          1          2         26         56       77.5       29.2      29.64       29.2        259       3433      -1692       3.16       0.00       0.00      0.000
9:08am            162          0          3         26         56       77.5       29.4      29.64       29.4        260       3436      -1677       3.31       0.00       0.00      0.000
9:09am             87          2          3         26         55       77.5       29.5      29.64       28.2        260       3541      -1670       3.35       0.00       0.00      0.000
9:10am             86          3          5         26         55       77.5       29.5      29.64       26.5        261       3541      -1668       3.29       0.00       0.00      0.000
9:11am             86          1          3         27         55       77.5       29.6      29.64       29.6        261       3542      -1661       3.34       0.00       0.00      0.000
9:12am             77          3          6         26         54       77.5       29.5      29.64       26.5        261       3646      -1668       3.18       0.00       0.00      0.000
9:13am             75          0          6         26         54       77.5       29.4      29.64       29.4        261       3644      -1674       3.03       0.00       0.00      0.000
9:14am             77          2          6         26         54       77.5       29.4      29.64       28.1        261       3644      -1675       2.98       0.00       0.00      0.000
9:15am             77          1          6         26         54       77.7       29.4      29.64       29.4        260       3644      -1677       2.93       0.00       0.00      0.000
9:16am             77          3          3         26         55       77.7       29.4      29.64       26.4        260       3539      -1677       2.88       0.00       0.00      0.000
9:17am             77          3          3         26         55       77.7       29.4      29.64       26.4        260       3539      -1677       2.84       0.00       0.00      0.000
9:18am             77          2          3         26         54       77.7       29.4      29.64       28.1        259       3644      -1678       2.79       0.00       0.00      0.000
9:19am             77          1          3         26         54       77.7       29.4      29.64       29.4        259       3644      -1678       2.75       0.00       0.00      0.000
9:20am             77          2          3         26         54       77.7       29.3      29.64       28.0        258       3642      -1686       2.60       0.00       0.00      0.000
9:21am             77          0          2         26         54       77.7       29.3      29.64       29.3        259       3642      -1685       2.56       0.00       0.00      0.000
9:22am             77          1          2         26         55       77.7       29.4      29.64       29.4        259       3539      -1678       2.62       0.00       0.00      0.000
9:23am             77          1          2         26         54       77.5       29.4      29.64       29.4        260       3644      -1677       2.57       0.00       0.00      0.000
9:24am             80          1          3         26         54       77.5       29.6      29.64       29.6        261       3647      -1661       2.73       0.00       0.00      0.000
9:25am             80          1          3         26         55       77.5       29.8      29.64       29.8        261       3545      -1647       2.88       0.00       0.00      0.000
9:26am             79          3          3         26         54       77.5       29.9      29.64       26.9        261       3652      -1640       2.93       0.00       0.00      0.000
9:27am             81          3          3         26         54       77.5       30.0      29.64       27.1        262       3654      -1631       2.98       0.00       0.00      0.000
9:28am             81          2          4         26         53       77.5       30.1      29.64       28.9        261       3763      -1625       3.03       0.00       0.00      0.000
9:29am             81          2          4         26         53       77.7       30.1      29.64       28.9        262       3763      -1624       2.98       0.00       0.00      0.000
9:30am             81          1          4         26         53       77.7       30.1      29.64       30.1        263       3763      -1623       2.93       0.00       0.00      0.000
9:31am             81          1          2         27         54       77.7       30.1      29.64       30.1        263       3656      -1623       2.89       0.00       0.00      0.000
9:32am             81          2          3         26         55       77.7       30.2      29.64       29.0        263       3552      -1616       2.94       0.00       0.00      0.000
9:33am             81          2          3         26         53       77.7       30.4      29.64       29.2        262       3768      -1603       3.09       0.00       0.00      0.000
9:34am             81          1          3         26         53       77.7       30.4      29.64       30.4        262       3768      -1603       3.03       0.00       0.00      0.000
9:35am             81          2          3         26         53       77.7       30.4      29.64       29.2        261       3768      -1604       2.99       0.00       0.00      0.000
9:36am             81          1          2         26         53       77.7       30.3      29.64       30.3        261       3766      -1611       2.84       0.00       0.00      0.000
9:37am             81          1          2         26         53       77.7       30.3      29.64       30.3        261       3766      -1611       2.79       0.00       0.00      0.000
9:38am             78          3          5         26         53       77.7       30.5      29.64       27.6        262       3769      -1596       2.94       0.00       0.00      0.000
9:39am             79          2          5         26         53       77.7       30.5      29.64       29.3        261       3769      -1597       2.89       0.00       0.00      0.000
9:40am             79          3          5         26         53       77.7       30.5      29.64       27.6        262       3769      -1596       2.85       0.00       0.00      0.000
9:41am             79          2          4         26         53       77.7       30.5      29.64       29.3        261       3769      -1597       2.80       0.00       0.00      0.000
9:42am             79          1          4         26         52       77.7       30.5      29.64       30.5        262       3878      -1596       2.75       0.00       0.00      0.000
9:43am             79          0          4         26         53       77.7       30.4      29.64       30.4        262       3768      -1603       2.61       0.00       0.00      0.000
9:44am             79          1          4         26         53       77.7       30.4      29.64       30.4        261       3768      -1604       2.56       0.00       0.00      0.000
9:45am             79          2          4         26         53       77.7       30.5      29.64       29.3        261       3769      -1597       2.62       0.00       0.00      0.000
9:46am             79          1          2         26         53       77.7       30.5      29.64       30.5        262       3769      -1596       2.58       0.00       0.00      0.000
9:47am             79          2          3         26         53       77.7       30.6      29.64       29.4        263       3771      -1587       2.63       0.00       0.00      0.000
9:48am             79          3          3         26         53       77.7       30.6      29.64       27.7        263       3771      -1587       2.59       0.00       0.00      0.000
9:49am             79          1          3         26         53       77.7       30.7      29.64       30.7        263       3773      -1580       2.65       0.00       0.00      0.000
9:50am             79          3          3         26         53       77.7       30.7      29.64       27.8        264       3773      -1579       2.60       0.00       0.00      0.000
9:51am             79          2          3         26         53       77.7       30.7      29.64       29.5        264       3773      -1579       2.56       0.00       0.00      0.000
9:52am             75          1          3         26         53       77.5       30.7      29.63       30.7        265       3773      -1578       2.52       0.00       0.00      0.000
9:53am             75          0          3         26         54       77.7       30.7      29.63       30.7        265       3666      -1578       2.47       0.00       0.00      0.000
9:54am             75          2          3         26         54       77.7       30.8      29.63       29.7        265       3667      -1571       2.53       0.00       0.00      0.000
9:55am             75          0          3         28         54       77.7       30.8      29.63       30.8        265       3667      -1571       2.49       0.00       0.00      0.000
9:56am             75          1          1         26         54       77.7       31.0      29.63       31.0        265       3671      -1557       2.65       0.00       0.00      0.000
9:57am             75          0          1         26         54       77.7       31.1      29.63       31.1        265       3672      -1550       2.70       0.00       0.00      0.000
9:58am             75          0          1         26         54       77.7       31.2      29.63       31.2        265       3674      -1543       2.75       0.00       0.00      0.000
9:59am            231          1          3         26         54       77.7       31.2      29.63       31.2        265       3674      -1543       2.71       0.00       0.00      0.000
10:00am           231          1          3         26         53       77.7       31.4      29.63       31.4        265       3785      -1529       2.87       0.00       0.00      0.000
10:01am           232          0          2         26         53       77.7       31.5      29.63       31.5        265       3787      -1522       2.92       0.00       0.00      0.000
10:02am           232          1          2         26         53       77.7       31.5      29.63       31.5        265       3787      -1522       2.87       0.00       0.00      0.000
10:03am           227          2          2         26         53       77.7       31.7      29.63       30.6        265       3790      -1508       3.02       0.00       0.00      0.000
10:04am           227          0          2         26         54       77.7       31.9      29.63       31.9        265       3686      -1494       3.17       0.00       0.00      0.000
10:05am           227          0          2         26         55       77.7       32.3      29.63       32.3        265       3586      -1466       3.51       0.00       0.00      0.000
10:06am           227          0          1         26         54       77.7       32.6      29.63       32.6        267       3697      -1442       3.75       0.00       0.00      0.000
10:07am           227          0          1         26         55       77.7       32.9      29.63       32.9        267       3596      -1421       3.99       0.00       0.00      0.000
10:08am           226          1          1         26         53       77.7       33.1      29.63       33.1        268       3814      -1406       4.12       0.00       0.00      0.000
10:09am           227          1          1         26         54       77.7       33.4      29.63       33.4        268       3711      -1385       4.35       0.00       0.00      0.000
10:10am           227          1          1         26         53       77.7       33.6      29.63       33.6        268       3823      -1371       4.47       0.00       0.00      0.000
10:11am           227          0          2         26         52       77.7       33.8      29.63       33.8        268       3937      -1357       4.60       0.00       0.00      0.000
10:12am            94          1          3         26         53       77.7       34.0      29.63       34.0        268       3830      -1343       4.72       0.00       0.00      0.000
10:13am            94          1          3         26         51       77.7       34.1      29.63       34.1        269       4055      -1335       4.74       0.00       0.00      0.000
10:14am            94          1          3         26         51       77.7       34.2      29.63       34.2        269       4057      -1328       4.76       0.00       0.00      0.000
10:15am           150          3          3         26         50       77.7       34.2      29.63       31.8        270       4171      -1327       4.68       0.00       0.00      0.000
10:16am           171          4          5         26         49       77.7       34.0      29.63       30.4        270       4284      -1341       4.41       0.00       0.00      0.000
10:17am           153          2          5         26         49       77.5       33.7      29.63       32.8        272       4278      -1360       4.04       0.00       0.00      0.000
10:18am           153          2          5         26         49       77.5       33.4      29.63       32.5        272       4273      -1379       3.67       0.00       0.00      0.000
10:19am           155          3          5         26         50       77.5       33.2      29.63       30.7        272       4153      -1393       3.41       0.00       0.00      0.000
10:20am           154          1          5         26         51       77.5       33.2      29.63       33.2        273       4038      -1392       3.36       0.00       0.00      0.000
10:21am           155          0          2         26         53       77.5       33.2      29.63       33.2        273       3816      -1392       3.30       0.00       0.00      0.000
10:22am           155          2          2         26         53       77.5       33.3      29.63       32.4        273       3817      -1385       3.35       0.00       0.00      0.000
10:23am           197          2          4         26         51       77.5       33.3      29.63       32.4        272       4040      -1388       3.29       0.00       0.00      0.000
10:24am           197          2          4         26         51       77.5       33.4      29.63       32.5        272       4042      -1381       3.33       0.00       0.00      0.000
10:25am           204          2          4         26         51       77.5       33.5      29.63       32.6        272       4044      -1374       3.38       0.00       0.00      0.000
10:26am           204          2          3         26         51       77.5       33.5      29.63       32.6        272       4044      -1374       3.32       0.00       0.00      0.000
10:27am           204          2          3         26         52       77.5       33.6      29.63       32.7        272       3933      -1367       3.37       0.00       0.00      0.000
10:28am           249          4          4         26         51       77.5       33.7      29.63       30.0        272       4047      -1358       3.41       0.00       0.00      0.000
10:29am           292          3          4         26         52       77.5       33.7      29.63       31.2        273       3935      -1357       3.36       0.00       0.00      0.000
10:30am           323          3          4         26         50       77.5       33.6      29.62       31.1        275       4160      -1362       3.20       0.00       0.00      0.000
10:31am           323          2          3         26         51       77.5       33.5      29.62       32.6        275       4044      -1369       3.05       0.00       0.00      0.000
10:32am           240          2          3         26         52       77.5       33.5      29.62       32.6        276       3931      -1368       3.00       0.00       0.00      0.000
10:33am           180          1          4         26         52       77.5       33.5      29.62       33.5        277       3931      -1367       2.95       0.00       0.00      0.000
10:34am           208          3          4         26         52       77.5       33.7      29.62       31.2        277       3935      -1353       3.10       0.00       0.00      0.000
10:35am           210          2          4         26         51       77.5       33.7      29.62       32.8        276       4047      -1354       3.05       0.00       0.00      0.000
10:36am           202          3          3         26         50       77.5       33.7      29.62       31.2        277       4162      -1353       3.00       0.00       0.00      0.000
10:37am           202          1          3         26         51       77.5       33.7      29.62       33.7        277       4047      -1353       2.95       0.00       0.00      0.000
10:38am           243          2          4         26         50       77.5       33.7      29.62       32.8        275       4162      -1355       2.90       0.00       0.00      0.000
10:39am           244          1          4         26         50       77.5       33.6      29.62       33.6        276       4160      -1361       2.75       0.00       0.00      0.000
10:40am           244          1          4         26         50       77.5       33.6      29.62       33.6        277       4160      -1360       2.70       0.00       0.00      0.000
10:41am           244          1          2         26         50       77.5       33.5      29.62       33.5        278       4158      -1366       2.56       0.00       0.00      0.000
10:42am           172          1          3         26         51       77.5       33.7      29.62       33.7        278       4047      -1352       2.72       0.00       0.00      0.000
10:43am           179          1          3         26         51       77.5       33.8      29.62       33.8        279       4049      -1343       2.77       0.00       0.00      0.000
10:44am           226          3          4         26         51       77.5       34.0      29.62       31.6        279       4053      -1329       2.92       0.00       0.00      0.000
10:45am           227          2          4         26         51       77.5       34.1      29.62       33.3        279       4055      -1322       2.97       0.00       0.00      0.000
10:46am           218          4          4         26         50       77.5       34.2      29.62       30.6        280       4171      -1314       3.02       0.00       0.00      0.000
10:47am           243          4          5         26         49       77.5       34.2      29.62       30.6        280       4288      -1314       2.97       0.00       0.00      0.000
10:48am           214          5          5         26         49       77.5       34.1      29.62       29.5        280       4286      -1321       2.82       0.00       0.00      0.000
10:49am           155          4          5         26         49       77.5       34.0      29.62       30.4        280       4284      -1328       2.68       0.00       0.00      0.000
10:50am           149          3          7         26         49       77.5       33.8      29.62       31.4        281       4280      -1341       2.44       0.00       0.00      0.000
10:51am           150          1          4         26         50       77.5       33.8      29.62       33.8        281       4164      -1341       2.40       0.00       0.00      0.000
10:52am           212          2          4         26         52       77.5       33.8      29.62       32.9        281       3937      -1341       2.36       0.00       0.00      0.000
10:53am           276          2          4         26         51       77.5       33.8      29.62       32.9        281       4049      -1341       2.32       0.00       0.00      0.000
10:54am           276          0          4         26         50       77.5       33.9      29.62       33.9        281       4166      -1334       2.38       0.00       0.00      0.000
10:55am           278          2          4         26         52       77.5       34.0      29.62       33.2        281       3940      -1327       2.44       0.00       0.00      0.000
10:56am           289          2          3         26         50       77.5       34.1      29.62       33.3        282       4169      -1319       2.50       0.00       0.00      0.000
10:57am           281          3          4         26         49       77.5       34.2      29.62       31.8        282       4288      -1312       2.56       0.00       0.00      0.000
10:58am           281          0          4         26         49       77.5       34.2      29.62       34.2        282       4288      -1312       2.52       0.00       0.00      0.000
10:59am           300          1          4         26         49       77.5       34.2      29.62       34.2        282       4288      -1312       2.47       0.00       0.00      0.000
11:00am            83          3          5         26         49       77.3       34.1      29.62       31.7        282       4286      -1319       2.33       0.00       0.00      0.000
11:01am            83          1          3         26         50       77.5       34.2      29.62       34.2        283       4171      -1311       2.39       0.00       0.00      0.000
11:02am           263          2          3         26         52       77.3       34.3      29.62       33.5        283       3946      -1304       2.45       0.00       0.00      0.000
11:03am           213          4          5         26         51       77.5       34.4      29.62       30.8        283       4060      -1297       2.51       0.00       0.00      0.000
11:04am           237          3          5         26         49       77.5       34.5      29.62       32.1        282       4294      -1291       2.57       0.00       0.00      0.000
11:05am           210          3          5         26         49       77.5       34.4      29.62       32.0        281       4292      -1299       2.43       0.00       0.00      0.000
11:06am           210          2          3         26         49       77.5       34.4      29.62       33.6        281       4292      -1299       2.39       0.00       0.00      0.000
11:07am           358          1          3         26         49       77.5       34.4      29.62       34.4        281       4292      -1299       2.35       0.00       0.00      0.000
11:08am            71          2          3         26         49       77.5       34.4      29.62       33.6        282       4292      -1298       2.31       0.00       0.00      0.000
11:09am            74          0          4         26         50       77.5       34.4      29.62       34.4        281       4175      -1299       2.27       0.00       0.00      0.000
11:10am            71          0          4         26         51       77.5       34.6      29.62       34.6        281       4064      -1285       2.43       0.00       0.00      0.000
11:11am            75          0          0         26         51       77.5       34.6      29.62       34.6        282       4064      -1284       2.39       0.00       0.00      0.000
11:12am           154          2          5         26         50       77.5       34.8      29.62       34.0        282       4183      -1270       2.55       0.00       0.00      0.000
11:13am           150          3          5         26         50       77.5       35.0      29.62       32.7        283       4186      -1255       2.71       0.00       0.00      0.000
11:14am           150          2          5         26         49       77.5       35.1      29.62       34.4        282       4305      -1249       2.76       0.00       0.00      0.000
11:15am           150          0          5         26         49       77.5       35.1      29.62       35.1        282       4305      -1249       2.72       0.00       0.00      0.000
11:16am           151          0          2         26         49       77.5       35.2      29.62       35.2        282       4307      -1242       2.77       0.00       0.00      0.000
11:17am           233          3          5         26         50       77.5       35.5      29.62       33.3        282       4196      -1221       3.02       0.00       0.00      0.000
11:18am           277          3          5         26         49       77.5       35.5      29.62       33.3        282       4313      -1221       2.97       0.00       0.00      0.000
11:19am           278          2          5         26         49       77.5       35.4      29.62       34.7        281       4311      -1230       2.82       0.00       0.00      0.000
11:20am           277          3          5         26         49       77.3       35.5      29.62       33.3        281       4313      -1223       2.88       0.00       0.00      0.000
11:21am           226          2          3         26         50       77.3       35.6      29.62       34.9        281       4198      -1216       2.93       0.00       0.00      0.000
11:22am           152          2          7         26         50       77.3       35.7      29.62       35.0        282       4199      -1208       2.98       0.00       0.00      0.000
11:23am           241          3          7         26         50       77.3       35.9      29.62       33.7        281       4203      -1195       3.13       0.00       0.00      0.000
11:24am           287          3          7         28         50       77.3       35.9      29.62       33.7        282       4203      -1194       3.08       0.00       0.00      0.000
11:25am           287          0          7         26         48       77.3       35.9      29.62       35.9        282       4441      -1194       3.02       0.00       0.00      0.000
11:26am           287          0          1         26         48       77.3       35.9      29.62       35.9        282       4441      -1194       2.98       0.00       0.00      0.000
11:27am           283          2          2         26         50       77.3       36.1      29.62       35.5        283       4207      -1179       3.12       0.00       0.00      0.000
11:28am           227          1          4         26         50       77.3       36.2      29.61       36.2        283       4209      -1171       3.17       0.00       0.00      0.000
11:29am           229          6          6         26         49       77.3       36.4      29.61       31.5        284       4331      -1155       3.31       0.00       0.00      0.000
11:30am           220          4          8         26         49       77.3       36.4      29.61       33.2        285       4331      -1154       3.26       0.00       0.00      0.000
11:31am           235          1          4         26         49       77.3       36.4      29.61       36.4        286       4331      -1153       3.21       0.00       0.00      0.000
11:32am           266          2          4         26         48       77.3       36.4      29.61       35.8        286       4451      -1153       3.15       0.00       0.00      0.000
11:33am           265          2          4         26         48       77.3       36.3      29.61       35.7        287       4449      -1159       3.01       0.00       0.00      0.000
11:34am           170          1          6         26         49       77.3       36.2      29.61       36.2        287       4327      -1166       2.85       0.00       0.00      0.000
11:35am           249          3          6         26         49       77.3       36.3      29.61       34.2        287       4329      -1159       2.91       0.00       0.00      0.000
11:36am           300          4          4         26         49       77.3       36.4      29.61       33.2        286       4331      -1153       2.96       0.00       0.00      0.000
11:37am           305          3          5         26         49       77.3       36.3      29.61       34.2        285       4329      -1161       2.81       0.00       0.00      0.000
11:38am           327          3          5         26         48       77.3       36.2      29.61       34.1        286       4447      -1167       2.66       0.00       0.00      0.000
11:39am           310          3          5         26         49       77.2       36.1      29.61       34.0        286       4325      -1174       2.52       0.00       0.00      0.000
11:40am           310          1          5         26         48       77.2       36.1      29.61       36.1        286       4445      -1174       2.48       0.00       0.00      0.000
11:41am           295          2          3         26         48       77.2       36.1      29.61       35.5        287       4445      -1173       2.44       0.00       0.00      0.000
11:42am           220          1          3         26         49       77.2       36.1      29.61       36.1        289       4325      -1171       2.40       0.00       0.00      0.000
11:43am           245          3          3         26         50       77.2       36.3      29.61       34.2        289       4211      -1157       2.56       0.00       0.00      0.000
11:44am           245          1          3         26         48       77.2       36.4      29.61       36.4        291       4451      -1147       2.61       0.00       0.00      0.000
11:45am           168          4          4         26         48       77.2       36.4      29.61       33.2        291       4451      -1147       2.57       0.00       0.00      0.000
11:46am           142          2          4         26         48       77.2       36.4      29.61       35.8        291       4451      -1147       2.53       0.00       0.00      0.000
11:47am           142          2          4         26         48       77.2       36.4      29.60       35.8        293       4451      -1145       2.49       0.00       0.00      0.000
11:48am           252          1          4         26         49       77.2       36.4      29.60       36.4        293       4331      -1145       2.45       0.00       0.00      0.000
11:49am           251          0          4         26         48       77.2       36.5      29.60       36.5        294       4453      -1137       2.50       0.00       0.00      0.000
11:50am           202          3          4         26         48       77.2       36.6      29.60       34.5        294       4455      -1130       2.56       0.00       0.00      0.000
11:51am           123          1          5         26         49       77.2       36.8      29.60       36.8        294       4338      -1116       2.72       0.00       0.00      0.000
11:52am           242          3          5         26         48       77.2       36.9      29.60       34.9        294       4461      -1109       2.77       0.00       0.00      0.000
11:53am           229          3          5         26         49       77.2       37.0      29.60       35.0        294       4342      -1102       2.83       0.00       0.00      0.000
11:54am           211          3          5         26         50       77.2       37.2      29.60       35.2        294       4228      -1089       2.98       0.00       0.00      0.000
11:55am           251          4          6         26         49       77.0       37.4      29.60       34.3        293       4350      -1076       3.13       0.00       0.00      0.000
11:56am           212          4          7         26         48       77.0       37.3      29.61       34.2        292       4469      -1084       2.97       0.00       0.00      0.000
11:57am           217          1          7         26         48       77.0       37.3      29.60       37.3        294       4469      -1082       2.93       0.00       0.00      0.000
11:58am           214          3          7         26         48       77.0       37.2      29.60       35.2        294       4467      -1089       2.78       0.00       0.00      0.000
11:59am           294          1          7         26         49       77.0       37.3      29.60       37.3        294       4348      -1082       2.83       0.00       0.00      0.000
12:00pm           310          1          7         26         49       77.0       37.3      29.60       37.3        294       4348      -1082       2.79       0.00       0.00      0.000
12:01pm            15          1          2         26         49       77.0       37.4      29.60       37.4        294       4350      -1075       2.84       0.00       0.00      0.000
12:02pm           153          1          3         26         48       77.0       37.4      29.60       37.4        294       4471      -1074       2.79       0.00       0.00      0.000
12:03pm           153          1          3         26         48       77.0       37.5      29.60       37.5        294       4473      -1067       2.85       0.00       0.00      0.000
12:04pm           226          4          8         26         49       77.0       37.6      29.60       34.5        294       4354      -1061       2.89       0.00       0.00      0.000
12:05pm           214          4          8         26         47       77.0       37.6      29.60       34.5        294       4598      -1060       2.85       0.00       0.00      0.000
12:06pm           145          1          5         26         47       77.0       37.5      29.60       37.5        294       4596      -1067       2.70       0.00       0.00      0.000
12:07pm           145          1          5         26         48       77.0       37.5      29.60       37.5        294       4473      -1067       2.66       0.00       0.00      0.000
12:08pm           207          3          5         26         50       77.0       37.8      29.60       35.9        294       4239      -1046       2.91       0.00       0.00      0.000
12:09pm           180          9          9         26         48       77.0       37.9      29.60       31.5        294       4481      -1039       2.96       0.00       0.00      0.000
12:10pm           209          3          9         26         47       77.0       37.8      29.60       35.9        294       4602      -1046       2.82       0.00       0.00      0.000
12:11pm           226          3          5         26         47       77.0       37.7      29.60       35.8        294       4600      -1053       2.67       0.00       0.00      0.000
12:12pm           220          2          5         26         48       77.0       37.6      29.60       37.1        294       4475      -1060       2.53       0.00       0.00      0.000
12:13pm           267          5          6         26         48       77.0       37.5      29.60       33.5        294       4473      -1067       2.39       0.00       0.00      0.000
12:14pm           222          0          6         26         47       77.0       37.4      29.60       37.4        294       4593      -1074       2.25       0.00       0.00      0.000
12:15pm           103          3          6         26         48       77.0       37.5      29.60       35.5        295       4473      -1066       2.31       0.00       0.00      0.000
12:16pm           104          0          3         26         49       77.0       37.6      29.60       37.6        295       4354      -1059       2.37       0.00       0.00      0.000
12:17pm           222          2          4         26         50       77.0       37.9      29.60       37.5        295       4241      -1038       2.63       0.00       0.00      0.000
12:18pm           237          2          4         26         48       77.0       38.1      29.60       37.7        295       4485      -1024       2.78       0.00       0.00      0.000
12:19pm           191          0          4         26         50       77.0       38.4      29.60       38.4        295       4250      -1003       3.04       0.00       0.00      0.000
12:20pm           181          3          4         26         50       77.0       38.7      29.60       36.9        295       4256       -983       3.29       0.00       0.00      0.000
12:21pm           189          8          8         26         48       77.0       38.8      29.60       33.1        295       4499       -976       3.33       0.00       0.00      0.000
12:22pm           220          4          9         26         46       77.0       38.5      29.60       35.6        296       4742       -995       2.98       0.00       0.00      0.000
12:23pm           150          5          9         26         46       77.0       38.3      29.60       34.5        297       4738      -1008       2.73       0.00       0.00      0.000
12:24pm           160          0          9         26         48       77.0       38.2      29.60       38.2        299       4487      -1013       2.58       0.00       0.00      0.000
12:25pm           254          2          9         26         49       77.0       38.2      29.60       37.8        299       4365      -1013       2.54       0.00       0.00      0.000
12:26pm           285          4          5         26         48       77.0       38.4      29.60       35.5        299       4491       -999       2.70       0.00       0.00      0.000
12:27pm           241          4          5         26         48       77.0       38.4      29.60       35.5        299       4491       -999       2.65       0.00       0.00      0.000
12:28pm           321          3          5         26         47       77.0       38.4      29.60       36.6        300       4614       -998       2.61       0.00       0.00      0.000
12:29pm           254          1          5         26         48       77.0       38.4      29.60       38.4        301       4491       -996       2.56       0.00       0.00      0.000
12:30pm           255          1          5         26         48       77.0       38.4      29.60       38.4        302       4491       -995       2.52       0.00       0.00      0.000
12:31pm           272          1          1         26         49       77.0       38.5      29.59       38.5        305       4371       -985       2.58       0.00       0.00      0.000
12:32pm           345          1          2         26         50       77.0       38.6      29.59       38.6        305       4254       -977       2.64       0.00       0.00      0.000
12:33pm           237          1          3         26         49       77.0       38.8      29.59       38.8        305       4377       -964       2.79       0.00       0.00      0.000
12:34pm           243          2          3         26         48       77.0       38.9      29.59       38.6        303       4501       -960       2.84       0.00       0.00      0.000
12:35pm           226          4          4         26         51       77.0       39.2      29.59       36.4        303       4148       -939       3.10       0.00       0.00      0.000
12:36pm           224          3          4         26         49       76.8       39.5      29.59       37.8        303       4391       -918       3.34       0.00       0.00      0.000
12:37pm           189          2          5         26         47       76.8       39.5      29.59       39.2        304       4637       -917       3.29       0.00       0.00      0.000
12:38pm           269          4          5         26         47       76.8       39.5      29.59       36.7        305       4637       -915       3.23       0.00       0.00      0.000
12:39pm           292          4          5         26         47       76.8       39.5      29.59       36.7        306       4637       -914       3.18       0.00       0.00      0.000
12:40pm           252          4          5         26         47       76.8       39.3      29.59       36.5        305       4632       -929       2.93       0.00       0.00      0.000
12:41pm           250          5          5         26         46       76.8       39.2      29.59       35.5        305       4757       -936       2.78       0.00       0.00      0.000
12:42pm           154          3          6         26         46       76.8       39.1      29.59       37.3        305       4754       -944       2.63       0.00       0.00      0.000
12:43pm           310          4          6         26         46       76.8       39.0      29.59       36.2        305       4752       -949       2.49       0.00       0.00      0.000
12:44pm           300          4          6         26         46       76.8       39.0      29.59       36.2        306       4752       -948       2.45       0.00       0.00      0.000
12:45pm           348          2          6         26         46       76.8       38.9      29.59       38.6        306       4750       -955       2.31       0.00       0.00      0.000
12:46pm           264          3          5         26         46       76.8       38.8      29.59       37.0        305       4748       -963       2.17       0.00       0.00      0.000
12:47pm           253          2          5         26         46       76.8       38.8      29.59       38.4        306       4748       -962       2.14       0.00       0.00      0.000
12:48pm           314          2          5         26         47       76.8       38.9      29.59       38.6        306       4624       -955       2.20       0.00       0.00      0.000
12:49pm           218          4          5         26         46       76.8       38.8      29.59       35.9        308       4748       -960       2.07       0.00       0.00      0.000
12:50pm           310          2          5         26         46       76.8       38.8      29.59       38.4        308       4748       -960       2.03       0.00       0.00      0.000
12:51pm           256          3          3         26         47       76.8       38.9      29.59       37.1        308       4624       -953       2.10       0.00       0.00      0.000
12:52pm           199          3          5         26         49       76.8       39.0      29.59       37.2        308       4381       -946       2.16       0.00       0.00      0.000
12:53pm           293          3          5         28         48       76.8       39.2      29.59       37.5        308       4507       -932       2.33       0.00       0.00      0.000
12:54pm           300          3          5         26         48       76.8       39.3      29.59       37.6        309       4509       -924       2.39       0.00       0.00      0.000
12:55pm           300          1          5         26         47       76.6       39.4      29.59       39.4        309       4634       -917       2.45       0.00       0.00      0.000
12:56pm           222          1          3         26         47       76.6       39.5      29.59       39.5        309       4637       -910       2.51       0.00       0.00      0.000
12:57pm           238          3          4         26         47       76.6       39.6      29.59       37.9        310       4639       -902       2.56       0.00       0.00      0.000
12:58pm           281          4          4         26         47       76.6       39.7      29.59       37.0        310       4641       -895       2.62       0.00       0.00      0.000
12:59pm           270          4          6         26         48       76.6       39.8      29.59       37.1        310       4519       -889       2.67       0.00       0.00      0.000
1:00pm            280          4          6         26         49       76.6       39.9      29.59       37.2        310       4399       -882       2.73       0.00       0.00      0.000
1:01pm            274          2          5         26         47       76.6       39.8      29.58       39.5        312       4643       -886       2.59       0.00       0.00      0.000
1:02pm            300          4          5         26         47       76.6       39.8      29.58       37.1        312       4643       -886       2.54       0.00       0.00      0.000
1:03pm            300          2          5         26         47       76.6       39.6      29.58       39.3        313       4639       -899       2.30       0.00       0.00      0.000
1:04pm            300          0          5         26         47       76.6       39.6      29.58       39.6        314       4639       -898       2.27       0.00       0.00      0.000
1:05pm            353          3          5         26         47       76.6       39.7      29.58       38.0        315       4641       -890       2.33       0.00       0.00      0.000
1:06pm            320          2          5         26         46       76.6       39.7      29.58       39.4        316       4767       -889       2.29       0.00       0.00      0.000
1:07pm            320          2          5         26         45       76.6       39.8      29.58       39.5        316       4898       -881       2.35       0.00       0.00      0.000
1:08pm            321          0          5         26         44       76.6       39.8      29.58       39.8        317       5030       -879       2.31       0.00       0.00      0.000
1:09pm             68          3          5         26         46       76.6       39.8      29.58       38.1        320       4769       -876       2.28       0.00       0.00      0.000
1:10pm             65          3          5         26         44       76.6       39.8      29.57       38.1        321       5030       -875       2.24       0.00       0.00      0.000
1:11pm             78          1          4         26         44       76.6       39.7      29.57       39.7        323       5028       -879       2.10       0.00       0.00      0.000
1:12pm             78          2          4         26         44       76.6       39.7      29.57       39.4        323       5028       -879       2.07       0.00       0.00      0.000
1:13pm             80          0          4         26         44       76.6       39.6      29.57       39.6        324       5025       -885       1.93       0.00       0.00      0.000
1:14pm            275          3          4         26         45       76.6       39.6      29.57       37.9        324       4894       -885       1.90       0.00       0.00      0.000
1:15pm            300          4          4         26         46       76.6       39.8      29.57       37.1        325       4769       -870       2.07       0.00       0.00      0.000
1:16pm            300          3          5         26         46       76.6       39.9      29.57       38.3        325       4771       -863       2.13       0.00       0.00      0.000
1:17pm            300          3          5         26         46       76.6       40.0      29.57       38.4        325       4773       -857       2.20       0.00       0.00      0.000
1:18pm            278          4          5         26         46       76.6       40.0      29.57       37.3        326       4773       -855       2.16       0.00       0.00      0.000
1:19pm            300          4          5         26         46       76.6       40.1      29.57       37.4        326       4776       -849       2.22       0.00       0.00      0.000
1:20pm            277          4          5         26         45       76.6       40.0      29.57       37.3        326       4903       -855       2.09       0.00       0.00      0.000
1:21pm            255          3          4         26         45       76.6       40.0      29.57       38.4        325       4903       -857       2.05       0.00       0.00      0.000
1:22pm            236          1          4         26         45       76.6       39.9      29.57       39.9        325       4900       -863       1.92       0.00       0.00      0.000
1:23pm            279          4          4         26         45       76.6       40.0      29.57       37.3        326       4903       -855       1.99       0.00       0.00      0.000
1:24pm            255          3          4         26         46       76.6       40.1      29.57       38.5        327       4776       -847       2.06       0.00       0.00      0.000
1:25pm            276          0          5         26         45       76.6       40.2      29.57       40.2        327       4907       -840       2.12       0.00       0.00      0.000
1:26pm            224          4          4         26         46       76.6       40.4      29.57       37.8        329       4782       -823       2.29       0.00       0.00      0.000
1:27pm            164          5          8         26         48       76.6       40.5      29.57       37.1        328       4533       -818       2.35       0.00       0.00      0.000
1:28pm            160          4          8         26         45       76.6       40.6      29.56       38.0        330       4916       -808       2.41       0.00       0.00      0.000
1:29pm            170          6          9         26         44       76.6       40.5      29.56       36.4        330       5045       -815       2.27       0.00       0.00      0.000
1:30pm            139          4          9         26         44       76.6       40.2      29.56       37.5        333       5039       -832       1.93       0.00       0.00      0.000
1:31pm            216          3          6         26         44       76.6       39.9      29.56       38.3        334       5032       -852       1.60       0.00       0.00      0.000
1:32pm            181          5          6         26         44       76.6       39.8      29.56       36.2        335       5030       -858       1.48       0.00       0.00      0.000
1:33pm            210          3          6         26         45       76.6       39.7      29.56       38.0        336       4896       -863       1.36       0.00       0.00      0.000
1:34pm            232          7          8         26         45       76.6       39.5      29.56       34.5        336       4892       -877       1.14       0.00       0.00      0.000
1:35pm            211          3          8         26         45       76.6       39.4      29.56       37.7        336       4890       -884       1.02       0.00       0.00      0.000
1:36pm            180          3          4         26         46       76.6       39.5      29.56       37.8        337       4763       -876       1.10       0.00       0.00      0.000
1:37pm            238          3          4         26         46       76.4       39.6      29.56       37.9        337       4765       -869       1.18       0.00       0.00      0.000
1:38pm            250          2          4         26         45       76.4       39.7      29.56       39.4        339       4896       -860       1.26       0.00       0.00      0.000
1:39pm            245          5          8         26         46       76.4       39.9      29.56       36.4        338       4771       -847       1.44       0.00       0.00      0.000
1:40pm            246          4          8         26         45       76.4       40.1      29.56       37.4        338       4905       -834       1.61       0.00       0.00      0.000
1:41pm            239          5          5         26         44       76.4       40.2      29.56       36.7        338       5039       -827       1.68       0.00       0.00      0.000
1:42pm            209          3          6         26         44       76.4       40.2      29.56       38.6        338       5039       -827       1.66       0.00       0.00      0.000
1:43pm            220          3          6         26         45       76.4       40.3      29.56       38.7        338       4909       -820       1.73       0.00       0.00      0.000
1:44pm            264          3          6         26         45       76.4       40.5      29.56       38.9        339       4913       -805       1.90       0.00       0.00      0.000
1:45pm            215          4          6         26         45       76.4       40.6      29.56       38.0        339       4916       -798       1.96       0.00       0.00      0.000
1:46pm            276          1          4         26         45       76.4       40.7      29.56       40.7        339       4918       -791       2.03       0.00       0.00      0.000
1:47pm            186          4          4         26         44       76.4       40.8      29.56       38.2        339       5052       -784       2.10       0.00       0.00      0.000
1:48pm            220          1          4         26         44       76.4       41.0      29.56       41.0        339       5057       -771       2.26       0.00       0.00      0.000
1:49pm            175          4          4         26         43       76.4       41.0      29.55       38.5        339       5191       -770       2.22       0.00       0.00      0.000
1:50pm            145          2          6         26         44       76.4       41.2      29.55       41.1        339       5061       -756       2.39       0.00       0.00      0.000
1:51pm            113          4          5         26         44       76.4       41.2      29.55       38.7        339       5061       -756       2.35       0.00       0.00      0.000
1:52pm            209          1          5         26         43       76.4       41.3      29.56       41.3        339       5198       -750       2.41       0.00       0.00      0.000
1:53pm            190          2          5         26         45       76.4       41.3      29.55       41.2        339       4931       -749       2.37       0.00       0.00      0.000
1:54pm            156          3          5         26         45       76.4       41.5      29.55       40.1        339       4935       -735       2.52       0.00       0.00      0.000
1:55pm            224          9          9         26         44       76.4       41.5      29.56       35.9        339       5068       -736       2.48       0.00       0.00      0.000
1:56pm            195          5          9         26         44       76.4       41.3      29.55       38.0        339       5063       -749       2.24       0.00       0.00      0.000
1:57pm            206          3          9         26         45       76.4       41.0      29.55       39.5        339       4924       -770       1.91       0.00       0.00      0.000
1:58pm            184          5          9         26         45       76.4       40.8      29.55       37.4        340       4920       -782       1.68       0.00       0.00      0.000
1:59pm            215          8          9         26         46       76.4       40.8      29.55       35.6        339       4790       -783       1.65       0.00       0.00      0.000
2:00pm            183          4          9         26         45       76.4       40.6      29.55       38.0        340       4916       -796       1.43       0.00       0.00      0.000
2:01pm            208          5          6         26         45       76.4       40.5      29.55       37.1        340       4913       -803       1.30       0.00       0.00      0.000
2:02pm            189          6          8         26         46       76.4       40.4      29.55       36.2        340       4782       -810       1.18       0.00       0.00      0.000
2:03pm            197          7          8         26         46       76.4       40.4      29.55       35.6        342       4782       -807       1.16       0.00       0.00      0.000
2:04pm            224          4          8         26         45       76.4       40.2      29.55       37.5        342       4907       -821       0.95       0.00       0.00      0.000
2:05pm            226          2          8         26         45       76.4       40.1      29.55       39.9        344       4905       -826       0.83       0.00       0.00      0.000
2:06pm            254          2          4         26         46       76.4       40.1      29.55       39.9        345       4776       -825       0.82       0.00       0.00      0.000
2:07pm            207          3          4         26         47       76.4       40.2      29.55       38.6        344       4651       -819       0.90       0.00       0.00      0.000
2:08pm            144          3          7         26         47       76.4       40.5      29.55       38.9        344       4657       -798       1.18       0.00       0.00      0.000
2:09pm            222          3          7         26         47       76.4       40.7      29.55       39.2        343       4661       -786       1.36       0.00       0.00      0.000
2:10pm            169          4          7         26         46       76.4       40.9      29.55       38.4        342       4792       -773       1.53       0.00       0.00      0.000
2:11pm            267          3          4         26         46       76.4       40.9      29.55       39.4        342       4792       -773       1.51       0.00       0.00      0.000
2:12pm            283          1          4         26         46       76.4       41.0      29.55       41.0        342       4795       -766       1.59       0.00       0.00      0.000
2:13pm            157          3          4         26         46       76.4       41.2      29.55       39.7        344       4799       -750       1.76       0.00       0.00      0.000
2:14pm            176          4          4         26         46       76.4       41.3      29.55       38.8        345       4801       -742       1.83       0.00       0.00      0.000
2:15pm            180          5          9         26         45       76.4       41.4      29.55       38.1        345       4933       -735       1.90       0.00       0.00      0.000
2:16pm            190          6          9         26         45       76.4       41.3      29.55       37.3        346       4931       -741       1.77       0.00       0.00      0.000
2:17pm            157          6         10         26         45       76.4       41.0      29.55       36.9        345       4924       -763       1.44       0.00       0.00      0.000
2:18pm            222          4         10         26         45       76.4       40.8      29.55       38.2        345       4920       -776       1.22       0.00       0.00      0.000
2:19pm            179          6         10         26         46       76.4       40.7      29.55       36.6        345       4788       -783       1.10       0.00       0.00      0.000
2:20pm            179          7         10         26         46       76.4       40.7      29.55       36.0        347       4788       -781       1.08       0.00       0.00      0.000
2:21pm            229          2          7         26         46       76.4       40.6      29.55       40.4        347       4786       -788       0.97       0.00       0.00      0.000
2:22pm            196          6          7         26         47       76.4       40.7      29.55       36.6        346       4661       -782       1.05       0.00       0.00      0.000
2:23pm            156          4          7         26         47       76.4       40.9      29.55       38.4        346       4665       -768       1.23       0.00       0.00      0.000
2:24pm            158          0          7         26         47       76.4       41.1      29.55       41.1        346       4669       -755       1.41       0.00       0.00      0.000
2:25pm            160          3          7         26         48       76.4       41.4      29.55       39.9        346       4551       -734       1.68       0.00       0.00      0.000
2:26pm            168          9          9         26         47       76.4       41.5      29.55       35.9        346       4678       -727       1.75       0.00       0.00      0.000
2:27pm            129          3          9         26         46       76.4       41.5      29.55       40.1        347       4805       -726       1.72       0.00       0.00      0.000
2:28pm            161          7          9         26         46       76.4       41.4      29.55       36.8        348       4803       -732       1.60       0.00       0.00      0.000
2:29pm            149          4          9         26         45       76.4       41.0      29.55       38.5        348       4924       -759       1.17       0.00       0.00      0.000
2:30pm            196          5          9         26         45       76.3       40.8      29.54       37.4        350       4920       -771       0.96       0.00       0.00      0.000
2:31pm            194          6          7         26         46       76.3       40.7      29.54       36.6        350       4788       -776       0.84       0.00       0.00      0.000
2:32pm            235          1          7         26         46       76.3       40.6      29.54       40.6        350       4786       -783       0.73       0.00       0.00      0.000
2:33pm            177          4          7         26         47       76.3       40.7      29.54       38.1        351       4661       -775       0.82       0.00       0.00      0.000
2:34pm            158          6          8         27         47       76.3       40.7      29.54       36.6        351       4661       -775       0.80       0.00       0.00      0.000
2:35pm            194          1          8         26         47       76.3       40.7      29.54       40.7        350       4661       -776       0.79       0.00       0.00      0.000
2:36pm            232          8          8         26         48       76.3       40.9      29.54       35.7        350       4541       -763       0.97       0.00       0.00      0.000
2:37pm            257          4          9         26         46       76.3       40.9      29.54       38.4        351       4792       -762       0.96       0.00       0.00      0.000
2:38pm            181          0          9         26         46       76.3       41.0      29.54       41.0        351       4795       -755       1.04       0.00       0.00      0.000
2:39pm            181          1          9         26         47       76.3       41.1      29.54       41.1        352       4669       -747       1.12       0.00       0.00      0.000
2:40pm            256          2          9         26         47       76.3       41.3      29.54       41.2        352       4674       -733       1.30       0.00       0.00      0.000
2:41pm            226          2          4         26         46       76.3       41.5      29.54       41.4        352       4805       -719       1.48       0.00       0.00      0.000
2:42pm            140          5          5         26         46       76.3       41.6      29.54       38.4        352       4807       -712       1.55       0.00       0.00      0.000
2:43pm            248          3          6         26         45       76.3       41.8      29.54       40.4        352       4942       -699       1.73       0.00       0.00      0.000
2:44pm            148          5          6         26         46       76.3       41.9      29.54       38.7        352       4814       -692       1.80       0.00       0.00      0.000
2:45pm            114          4          6         26         45       76.3       42.0      29.54       39.6        352       4946       -685       1.87       0.00       0.00      0.000
2:46pm            120          0          4         26         45       76.3       41.9      29.54       41.9        352       4944       -692       1.74       0.00       0.00      0.000
2:47pm            202          6          6         26         45       76.3       42.0      29.54       38.1        352       4946       -685       1.81       0.00       0.00      0.000
2:48pm            197          3          6         26         44       76.3       41.9      29.54       40.5        353       5077       -691       1.68       0.00       0.00      0.000
2:49pm            186          6          6         26         45       76.3       41.9      29.54       38.0        353       4944       -691       1.65       0.00       0.00      0.000
2:50pm            220          2          6         26         45       76.3       42.0      29.54       42.0        352       4946       -685       1.72       0.00       0.00      0.000
2:51pm            229          5          7         26         44       76.3       42.0      29.54       38.8        352       5079       -685       1.69       0.00       0.00      0.000
2:52pm            260          2          7         26         44       76.3       42.0      29.54       42.0        353       5079       -684       1.67       0.00       0.00      0.000
2:53pm            207          2          7         26         44       76.3       42.0      29.54       42.0        352       5079       -685       1.64       0.00       0.00      0.000
2:54pm            204          1          7         26         45       76.3       41.9      29.54       41.9        352       4944       -692       1.51       0.00       0.00      0.000
2:55pm            234          4          7         26         45       76.3       42.0      29.54       39.6        353       4946       -684       1.59       0.00       0.00      0.000
2:56pm            274          7          7         26         45       76.3       42.1      29.54       37.7        353       4948       -677       1.66       0.00       0.00      0.000
2:57pm            237          3          7         26         44       76.3       42.0      29.54       40.6        352       5079       -685       1.53       0.00       0.00      0.000
2:58pm            237          1          7         26         45       76.3       42.1      29.54       42.1        352       4948       -678       1.61       0.00       0.00      0.000
2:59pm            258          6          7         26         46       76.3       42.1      29.54       38.3        352       4818       -678       1.58       0.00       0.00      0.000
3:00pm            194          2          7         26         46       76.3       42.1      29.54       42.1        352       4818       -678       1.55       0.00       0.00      0.000
3:01pm            250          6          6         26         46       76.3       42.1      29.54       38.3        352       4818       -678       1.53       0.00       0.00      0.000
3:02pm            278          2          6         26         46       76.3       42.0      29.54       42.0        352       4816       -685       1.40       0.00       0.00      0.000
3:03pm            156          3          6         26         47       76.3       42.1      29.54       40.7        352       4690       -678       1.48       0.00       0.00      0.000
3:04pm            256          3          6         26         46       76.3       42.0      29.54       40.6        352       4816       -685       1.36       0.00       0.00      0.000
3:05pm            172          2          6         26         46       76.3       42.1      29.54       42.1        352       4818       -678       1.43       0.00       0.00      0.000
3:06pm            160          3          5         26         46       76.3       42.0      29.54       40.6        353       4816       -684       1.31       0.00       0.00      0.000
3:07pm            184          7          7         26         46       76.3       41.9      29.54       37.4        352       4814       -692       1.19       0.00       0.00      0.000
3:08pm            219          5          8         26         45       76.3       41.7      29.54       38.5        353       4939       -704       0.97       0.00       0.00      0.000
3:09pm            218          2          8         26         46       76.3       41.5      29.54       41.4        353       4805       -718       0.76       0.00       0.00      0.000
3:10pm            172          5          8         26         47       76.3       41.5      29.54       38.2        353       4678       -718       0.74       0.00       0.00      0.000
3:11pm            213          3          5         26         47       76.3       41.4      29.54       39.9        354       4676       -724       0.63       0.00       0.00      0.000
3:12pm            153          3          6         26         47       76.3       41.4      29.54       39.9        353       4676       -725       0.62       0.00       0.00      0.000
3:13pm            152          3          6         26         47       76.3       41.4      29.54       39.9        354       4676       -724       0.61       0.00       0.00      0.000
3:14pm            197          7          7         26         46       76.3       41.3      29.54       36.7        353       4801       -732       0.50       0.00       0.00      0.000
3:15pm            212          3          8         26         46       76.3       41.1      29.54       39.6        353       4797       -746       0.30       0.00       0.00      0.000
3:16pm            237          2          4         26         46       76.3       41.0      29.54       40.9        353       4795       -752       0.19       0.00       0.00      0.000
3:17pm            193          5          5         26         47       76.3       40.9      29.54       37.5        353       4665       -759       0.09       0.00       0.00      0.000
3:18pm            168          3          7         26         47       76.3       40.8      29.54       39.3        353       4663       -766      -0.01       0.00       0.00      0.000
3:19pm            149          4          7         26         47       76.3       40.8      29.54       38.2        355       4663       -764      -0.01       0.00       0.00      0.000
3:20pm            113          2          7         26         48       76.3       40.8      29.54       40.6        355       4539       -764      -0.01       0.00       0.00      0.000
3:21pm             83          3          6         26         48       76.3       40.9      29.54       39.4        356       4541       -756       0.09       0.00       0.00      0.000
3:22pm            179          3          7         26         48       76.3       40.9      29.54       39.4        357       4541       -755       0.09       0.00       0.00      0.000
3:23pm            151          4          7         26         48       76.3       40.9      29.54       38.4        358       4541       -754       0.09       0.00       0.00      0.000
3:24pm            159          5          7         26         48       76.3       40.9      29.54       37.5        358       4541       -754       0.08       0.00       0.00      0.000
3:25pm            147          4          7         26         48       76.3       40.9      29.54       38.4        357       4541       -755       0.08       0.00       0.00      0.000
3:26pm            154          6          9         26         48       76.3       41.0      29.54       36.9        355       4543       -750       0.18       0.00       0.00      0.000
3:27pm            193          2          9         26         48       76.3       40.9      29.54       40.8        356       4541       -756       0.08       0.00       0.00      0.000
3:28pm            167          6          9         26         48       76.3       41.0      29.54       36.9        355       4543       -750       0.18       0.00       0.00      0.000
3:29pm            166          5          9         26         48       76.3       41.1      29.54       37.8        355       4545       -743       0.27       0.00       0.00      0.000
3:30pm            150          7          9         26         47       76.3       41.0      29.54       36.3        356       4667       -749       0.17       0.00       0.00      0.000
3:31pm            147          6          8         26         47       76.3       40.8      29.54       36.7        356       4663       -763      -0.03       0.00       0.00      0.000
3:32pm            163          5          8         26         47       76.3       40.7      29.54       37.3        357       4661       -768      -0.13       0.00       0.00      0.000
3:33pm            173          5          8         26         47       76.3       40.6      29.53       37.2        360       4659       -772      -0.23       0.00       0.00      0.000
3:34pm            145          7          8         26         47       76.3       40.6      29.53       35.9        361       4659       -770      -0.22       0.00       0.00      0.000
3:35pm            160          6          9         26         47       76.3       40.6      29.53       36.5        362       4659       -768      -0.22       0.00       0.00      0.000
3:36pm            169          3          9         26         48       76.3       40.5      29.53       38.9        364       4533       -773      -0.32       0.00       0.00      0.000
3:37pm            121          3          9         26         48       76.3       40.5      29.53       38.9        364       4533       -773      -0.31       0.00       0.00      0.000
3:38pm            205          6          9         26         48       76.1       40.6      29.53       36.5        364       4535       -766      -0.21       0.00       0.00      0.000
3:39pm            177          3          9         26         48       76.1       40.6      29.53       39.0        362       4535       -768      -0.20       0.00       0.00      0.000
3:40pm            169          2          9         26         48       76.1       40.6      29.53       40.4        362       4535       -768      -0.20       0.00       0.00      0.000
3:41pm            211          3          5         26         48       76.1       40.6      29.53       39.0        364       4535       -766      -0.20       0.00       0.00      0.000
3:42pm            210          0          5         26         48       76.1       40.7      29.53       40.7        365       4537       -758      -0.09       0.00       0.00      0.000
3:43pm            148          7          9         26         48       76.1       40.7      29.53       36.0        365       4537       -758      -0.09       0.00       0.00      0.000
3:44pm            168          5         10         26         48       76.1       40.7      29.53       37.3        366       4537       -757      -0.09       0.00       0.00      0.000
3:45pm            168          5         10         26         48       76.1       40.5      29.52       37.1        368       4533       -768      -0.29       0.00       0.00      0.000
3:46pm            159          4          6         26         48       76.1       40.5      29.52       37.9        368       4533       -768      -0.28       0.00       0.00      0.000
3:47pm            157          4          6         26         49       76.1       40.6      29.52       38.0        370       4412       -759      -0.18       0.00       0.00      0.000
3:48pm            150          5          8         26         48       76.1       40.7      29.52       37.3        371       4537       -751      -0.08       0.00       0.00      0.000
3:49pm            179          5         11         26         48       76.1       40.7      29.52       37.3        370       4537       -752      -0.08       0.00       0.00      0.000
3:50pm            172          4         11         26         48       76.1       40.6      29.52       38.0        369       4535       -760      -0.17       0.00       0.00      0.000
3:51pm            136          4          8         26         48       76.1       40.5      29.53       37.9        367       4533       -770      -0.27       0.00       0.00      0.000
3:52pm            181          5          9         26         48       76.1       40.5      29.53       37.1        367       4533       -770      -0.26       0.00       0.00      0.000
3:53pm            137          9         12         26         49       76.1       40.5      29.53       34.7        367       4410       -770      -0.26       0.00       0.00      0.000
3:54pm            177          5         12         26         48       76.1       40.3      29.52       36.8        369       4529       -781      -0.45       0.00       0.00      0.000
3:55pm            135          4         12         26         48       76.1       40.3      29.52       37.7        369       4529       -781      -0.45       0.00       0.00      0.000
3:56pm            110          7          7         26         48       76.1       40.2      29.52       35.4        370       4527       -787      -0.54       0.00       0.00      0.000
3:57pm            150          9          9         26         49       76.1       40.3      29.52       34.5        370       4406       -780      -0.43       0.00       0.00      0.000
3:58pm            176          3          9         26         48       76.1       40.3      29.52       38.7        370       4529       -780      -0.42       0.00       0.00      0.000
3:59pm            175          4          9         26         49       76.1       40.4      29.52       37.8        368       4408       -775      -0.32       0.00       0.00      0.000
4:00pm            150          2          9         26         49       76.1       40.5      29.53       40.3        367       4410       -770      -0.21       0.00       0.00      0.000
4:01pm            156          3          6         26         49       76.1       40.6      29.53       39.0        367       4412       -763      -0.11       0.00       0.00      0.000
4:02pm            164          8          8         26         49       76.1       40.6      29.53       35.3        367       4412       -763      -0.11       0.00       0.00      0.000
4:03pm            133          6         13         27         48       76.1       40.6      29.53       36.5        366       4535       -764      -0.11       0.00       0.00      0.000
4:04pm            113          6         13         26         49       76.1       40.6      29.53       36.5        366       4412       -764      -0.10       0.00       0.00      0.000
4:05pm            213          2         13         26         49       76.1       40.5      29.53       40.3        366       4410       -771      -0.20       0.00       0.00      0.000
4:06pm            220          5         10         26         49       76.1       40.6      29.53       37.2        365       4412       -765      -0.10       0.00       0.00      0.000
4:07pm            214          4         10         26         49       76.1       40.5      29.53       37.9        365       4410       -772      -0.20       0.00       0.00      0.000
4:08pm            206          4         10         26         49       76.1       40.5      29.53       37.9        365       4410       -772      -0.19       0.00       0.00      0.000
4:09pm            165          1         10         26         49       76.1       40.5      29.53       40.5        365       4410       -772      -0.19       0.00       0.00      0.000
4:10pm            199          8         10         26         50       76.1       40.5      29.53       35.2        365       4290       -772      -0.19       0.00       0.00      0.000
4:11pm            122          3          8         26         50       76.1       40.6      29.53       39.0        365       4292       -765      -0.09       0.00       0.00      0.000
4:12pm            247          4          8         26         50       76.1       40.7      29.53       38.1        363       4294       -760       0.02       0.00       0.00      0.000
4:13pm            183          8         11         26         49       76.1       40.7      29.53       35.4        363       4414       -760       0.02       0.00       0.00      0.000
4:14pm            237          4         11         26         49       76.1       40.6      29.53       38.0        363       4412       -767      -0.08       0.00       0.00      0.000
4:15pm            256          2         11         26         50       76.1       40.6      29.53       40.4        362       4292       -768      -0.08       0.00       0.00      0.000
4:16pm            152          3          4         26         50       76.1       40.6      29.53       39.0        365       4292       -765      -0.08       0.00       0.00      0.000
4:17pm            134          1          6         26         50       76.1       40.7      29.53       40.7        365       4294       -758       0.02       0.00       0.00      0.000
4:18pm            179          4          7         26         50       76.1       40.7      29.53       38.1        365       4294       -758       0.02       0.00       0.00      0.000
4:19pm            138          1          8         26         49       76.1       40.7      29.53       40.7        365       4414       -758       0.02       0.00       0.00      0.000
4:20pm            229          2          8         26         50       76.1       40.8      29.53       40.6        365       4296       -751       0.12       0.00       0.00      0.000
4:21pm            271          1          3         26         49       76.1       40.8      29.53       40.8        365       4416       -751       0.12       0.00       0.00      0.000
4:22pm            242          3          3         26         50       76.1       40.8      29.53       39.3        366       4296       -750       0.11       0.00       0.00      0.000
4:23pm            190          5          9         26         50       76.1       40.9      29.53       37.5        365       4298       -744       0.21       0.00       0.00      0.000
4:24pm            186          6          9         26         49       76.1       40.8      29.53       36.7        366       4416       -750       0.11       0.00       0.00      0.000
4:25pm            286          2          9         26         49       76.1       40.8      29.53       40.6        366       4416       -750       0.11       0.00       0.00      0.000
4:26pm            256          2          4         26         50       76.1       40.6      29.53       40.4        366       4292       -764      -0.09       0.00       0.00      0.000
4:27pm            256          1          4         26         50       76.1       40.6      29.53       40.6        367       4292       -763      -0.09       0.00       0.00      0.000
4:28pm            226          3          4         26         51       76.1       40.6      29.53       39.0        367       4174       -763      -0.09       0.00       0.00      0.000
4:29pm            207          3          6         26         51       76.1       40.6      29.53       39.0        367       4174       -763      -0.09       0.00       0.00      0.000
4:30pm            172          8          8         26         50       76.1       40.5      29.53       35.2        367       4290       -770      -0.19       0.00       0.00      0.000
4:31pm            199          4         12         26         50       76.1       40.4      29.53       37.8        367       4288       -776      -0.28       0.00       0.00      0.000
4:32pm            165          6         12         26         50       76.1       40.3      29.53       36.1        367       4286       -783      -0.38       0.00       0.00      0.000
4:33pm            136         10         12         26         50       76.1       40.2      29.52       33.9        368       4285       -789      -0.47       0.00       0.00      0.000
4:34pm            188          6         12         26         50       76.1       40.0      29.52       35.8        368       4281       -803      -0.66       0.00       0.00      0.000
4:35pm            159          3         12         26         50       76.1       39.9      29.52       38.3        368       4279       -810      -0.75       0.00       0.00      0.000
4:36pm            177          4         10         26         50       76.1       39.8      29.52       37.1        369       4277       -815      -0.83       0.00       0.00      0.000
4:37pm            209          4         10         26         51       76.1       39.7      29.52       37.0        368       4158       -823      -0.92       0.00       0.00      0.000
4:38pm            208          8         10         26         51       76.1       39.6      29.52       34.1        368       4156       -830      -1.00       0.00       0.00      0.000
4:39pm            181          6         10         26         51       76.1       39.5      29.52       35.2        368       4154       -837      -1.08       0.00       0.00      0.000
4:40pm            152          8         10         26         50       76.1       39.4      29.52       33.9        368       4269       -844      -1.17       0.00       0.00      0.000
4:41pm            187          6          8         26         51       76.1       39.3      29.52       34.9        369       4150       -850      -1.25       0.00       0.00      0.000
4:42pm            191          9         11         26         51       76.1       39.2      29.52       33.1        368       4148       -858      -1.32       0.00       0.00      0.000
4:43pm            260          1         11         26         51       76.1       39.2      29.53       39.2        367       4148       -859      -1.30       0.00       0.00      0.000
4:44pm            203          9         11         26         51       75.9       39.2      29.53       33.1        367       4148       -859      -1.28       0.00       0.00      0.000
4:45pm            170          6         11         26         50       75.9       39.1      29.53       34.7        367       4264       -866      -1.36       0.00       0.00      0.000
4:46pm            181          9         11         26         50       75.9       39.0      29.53       32.9        367       4262       -873      -1.43       0.00       0.00      0.000
4:47pm            185          3         11         26         50       75.9       39.0      29.52       37.2        368       4262       -872      -1.41       0.00       0.00      0.000
4:48pm            188          6         11         26         51       75.9       38.9      29.52       34.4        368       4143       -879      -1.49       0.00       0.00      0.000
4:49pm            197          7         11         26         50       76.1       38.9      29.52       33.8        368       4260       -879      -1.46       0.00       0.00      0.000
4:50pm            139          6         11         26         50       76.1       38.8      29.52       34.3        368       4258       -885      -1.54       0.00       0.00      0.000
4:51pm            151          3          6         26         50       76.1       38.7      29.52       36.9        369       4256       -891      -1.61       0.00       0.00      0.000
4:52pm            165          3          6         26         51       76.1       38.8      29.52       37.0        371       4141       -882      -1.49       0.00       0.00      0.000
4:53pm            164          4          6         26         51       76.1       38.7      29.52       35.8        372       4139       -888      -1.56       0.00       0.00      0.000
4:54pm            167          6          8         26         50       76.1       38.7      29.52       34.2        372       4256       -888      -1.53       0.00       0.00      0.000
4:55pm            160          7          8         26         50       76.1       38.7      29.52       33.6        372       4256       -887      -1.51       0.00       0.00      0.000
4:56pm            211          2          7         26         50       76.1       38.7      29.52       38.3        373       4256       -885      -1.48       0.00       0.00      0.000
4:57pm            150          2          7         26         50       76.1       38.7      29.52       38.3        374       4256       -884      -1.46       0.00       0.00      0.000
4:58pm            210          3          7         26         51       76.1       38.7      29.52       36.9        372       4139       -887      -1.44       0.00       0.00      0.000
4:59pm            300          2          7         26         52       76.1       38.7      29.52       38.3        373       4024       -885      -1.41       0.00       0.00      0.000
5:00pm            233          3          7         26         52       76.1       38.7      29.52       36.9        373       4024       -885      -1.39       0.00       0.00      0.000
5:01pm            232          1          3         26         51       76.1       38.7      29.52       38.7        373       4139       -885      -1.37       0.00       0.00      0.000
5:02pm            233          2          3         26         51       76.1       38.8      29.52       38.4        372       4141       -880      -1.24       0.00       0.00      0.000
5:03pm            197          3          6         26         52       76.1       38.7      29.52       36.9        372       4024       -887      -1.32       0.00       0.00      0.000
5:04pm            147          5          6         26         50       76.1       38.7      29.52       34.9        372       4256       -887      -1.30       0.00       0.00      0.000
5:05pm            229          5          6         26         50       76.1       38.7      29.52       34.9        372       4256       -887      -1.28       0.00       0.00      0.000
5:06pm            213          2          6         26         50       76.1       38.6      29.52       38.2        373       4254       -892      -1.36       0.00       0.00      0.000
5:07pm            213          1          6         26         50       76.1       38.7      29.52       38.7        373       4256       -885      -1.24       0.00       0.00      0.000
5:08pm            268          1          6         26         51       76.1       38.7      29.52       38.7        372       4139       -887      -1.22       0.00       0.00      0.000
5:09pm            141          0          6         26         51       76.1       38.6      29.52       38.6        373       4137       -892      -1.29       0.00       0.00      0.000
5:10pm            186          1          6         26         51       76.1       38.6      29.52       38.6        373       4137       -892      -1.27       0.00       0.00      0.000
5:11pm            186          3          4         26         51       76.1       38.6      29.52       36.8        373       4137       -892      -1.25       0.00       0.00      0.000
5:12pm            185          1          4         26         52       76.1       38.6      29.52       38.6        372       4022       -894      -1.23       0.00       0.00      0.000
5:13pm            185          3          4         26         51       76.1       38.6      29.52       36.8        372       4137       -894      -1.21       0.00       0.00      0.000
5:14pm            149          5          5         26         51       76.1       38.6      29.52       34.8        372       4137       -894      -1.19       0.00       0.00      0.000
5:15pm            150          0          5         26         51       76.1       38.6      29.52       38.6        372       4137       -894      -1.17       0.00       0.00      0.000
5:16pm            150          2          3         26         52       76.1       38.6      29.52       38.2        372       4022       -894      -1.15       0.00       0.00      0.000
5:17pm            150          3          4         26         52       76.1       38.5      29.52       36.7        372       4020       -900      -1.23       0.00       0.00      0.000
5:18pm            186          2          4         26         51       76.1       38.5      29.52       38.1        372       4135       -902      -1.21       0.00       0.00      0.000
5:19pm            199          4          4         26         51       76.1       38.4      29.52       35.5        371       4134       -910      -1.29       0.00       0.00      0.000
5:20pm            179          1          4         27         51       76.1       38.4      29.52       38.4        370       4134       -911      -1.27       0.00       0.00      0.000
5:21pm            262          2          5         26         52       76.1       38.4      29.52       38.0        369       4019       -912      -1.25       0.00       0.00      0.000
5:22pm            202          2          5         26         52       76.1       38.4      29.52       38.0        369       4019       -912      -1.23       0.00       0.00      0.000
5:23pm            166          1          5         26         52       76.1       38.3      29.52       38.3        369       4017       -919      -1.31       0.00       0.00      0.000
5:24pm            262          2          5         26         53       76.1       38.3      29.52       37.9        368       3904       -920      -1.29       0.00       0.00      0.000
5:25pm            170          6          7         26         53       76.1       38.3      29.52       33.7        369       3904       -919      -1.27       0.00       0.00      0.000
5:26pm            164          4          6         26         52       76.1       38.2      29.52       35.2        370       4015       -925      -1.35       0.00       0.00      0.000
5:27pm            164          2          6         26         53       76.1       38.2      29.52       37.8        370       3902       -925      -1.32       0.00       0.00      0.000
5:28pm            199          8          8         26         53       76.1       38.2      29.52       32.4        369       3902       -926      -1.30       0.00       0.00      0.000
5:29pm            286          2          8         26         53       76.1       38.1      29.52       37.7        370       3901       -931      -1.38       0.00       0.00      0.000
5:30pm            214          6          8         26         54       76.1       38.1      29.52       33.5        369       3790       -933      -1.36       0.00       0.00      0.000
5:31pm            160          2          6         26         53       76.1       38.1      29.52       37.7        370       3901       -931      -1.33       0.00       0.00      0.000
5:32pm            193         10         10         26         54       76.1       38.0      29.52       31.2        370       3788       -938      -1.41       0.00       0.00      0.000
5:33pm            283          7         10         26         54       76.3       38.0      29.52       32.7        369       3788       -939      -1.39       0.00       0.00      0.000
5:34pm            197          8         10         26         54       76.1       37.9      29.52       32.0        369       3786       -946      -1.46       0.00       0.00      0.000
5:35pm            199          2         10         26         54       76.3       37.9      29.52       37.5        369       3786       -946      -1.44       0.00       0.00      0.000
5:36pm            183          3          5         26         54       76.1       37.9      29.52       36.0        370       3786       -945      -1.42       0.00       0.00      0.000
5:37pm            183          1          5         26         54       76.1       37.9      29.52       37.9        370       3786       -945      -1.39       0.00       0.00      0.000
5:38pm            183          0          5         26         54       76.1       37.9      29.52       37.9        369       3786       -946      -1.37       0.00       0.00      0.000
5:39pm            214          5          5         26         54       76.1       37.8      29.52       33.9        369       3785       -953      -1.44       0.00       0.00      0.000
5:40pm            259          1          5         26         54       76.1       37.8      29.52       37.8        369       3785       -953      -1.42       0.00       0.00      0.000
5:41pm            189          3          5         26         55       76.1       37.8      29.53       35.9        367       3676       -956      -1.40       0.00       0.00      0.000
5:42pm            233          3          6         26         55       76.1       37.7      29.53       35.8        367       3674       -963      -1.48       0.00       0.00      0.000
5:43pm            231          5          6         26         55       76.1       37.7      29.53       33.8        366       3674       -964      -1.45       0.00       0.00      0.000
5:44pm            208          1          6         26         54       76.1       37.6      29.53       37.6        366       3781       -971      -1.52       0.00       0.00      0.000
5:45pm            258          2          6         26         54       76.1       37.6      29.53       37.1        366       3781       -971      -1.50       0.00       0.00      0.000
5:46pm            257          2          2         26         54       76.1       37.6      29.53       37.1        366       3781       -971      -1.48       0.00       0.00      0.000
5:47pm            242          1          5         26         55       76.1       37.6      29.53       37.6        366       3672       -971      -1.45       0.00       0.00      0.000
5:48pm            213          3          5         26         55       76.1       37.6      29.53       35.7        365       3672       -972      -1.43       0.00       0.00      0.000
5:49pm            207          2          5         26         54       76.3       37.6      29.53       37.1        366       3781       -971      -1.40       0.00       0.00      0.000
5:50pm            226          2          5         26         55       76.3       37.5      29.53       37.0        366       3671       -977      -1.48       0.00       0.00      0.000
5:51pm            212          3          5         26         55       76.3       37.4      29.53       35.4        366       3669       -984      -1.55       0.00       0.00      0.000
5:52pm            232          2          5         26         55       76.3       37.4      29.53       36.9        366       3669       -984      -1.53       0.00       0.00      0.000
5:53pm            235          1          5         26         55       76.3       37.4      29.53       37.4        366       3669       -984      -1.50       0.00       0.00      0.000
5:54pm            235          0          5         26         56       76.3       37.3      29.53       37.3        366       3561       -991      -1.58       0.00       0.00      0.000
5:55pm            235          2          5         26         56       76.3       37.2      29.53       36.7        366       3559       -998      -1.65       0.00       0.00      0.000
5:56pm            235          1          2         26         56       76.3       37.2      29.53       37.2        366       3559       -998      -1.62       0.00       0.00      0.000
5:57pm            235          1          3         26         56       76.3       37.1      29.53       37.1        366       3557      -1005      -1.70       0.00       0.00      0.000
5:58pm            246          5          6         26         56       76.3       37.0      29.53       32.9        365       3556      -1013      -1.77       0.00       0.00      0.000
5:59pm            199          3          6         26         56       76.3       37.0      29.53       35.0        366       3556      -1012      -1.74       0.00       0.00      0.000
6:00pm            199          0          6         26         56       76.3       37.0      29.53       37.0        365       3556      -1013      -1.71       0.00       0.00      0.000
6:01pm            199          0          2         26         57       76.3       37.0      29.53       37.0        365       3451      -1013      -1.68       0.00       0.00      0.000
6:02pm            199          1          2         26         57       76.3       37.0      29.53       37.0        364       3451      -1014      -1.65       0.00       0.00      0.000
6:03pm            199          0          2         26         57       76.3       36.9      29.53       36.9        363       3449      -1022      -1.73       0.00       0.00      0.000
6:04pm            199          2          3         26         57       76.3       36.9      29.53       36.4        362       3449      -1024      -1.70       0.00       0.00      0.000
6:05pm            201          3          3         26         57       76.3       36.9      29.53       34.9        362       3449      -1024      -1.67       0.00       0.00      0.000
6:06pm            212          2          5         26         57       76.3       36.8      29.53       36.2        363       3448      -1029      -1.74       0.00       0.00      0.000
6:07pm            203          2          5         26         57       76.3       36.9      29.53       36.4        362       3449      -1024      -1.61       0.00       0.00      0.000
6:08pm            195          3          5         26         57       76.3       36.9      29.53       34.9        362       3449      -1024      -1.59       0.00       0.00      0.000
6:09pm            195          1          5         26         57       76.3       36.8      29.53       36.8        362       3448      -1031      -1.66       0.00       0.00      0.000
6:10pm            182          0          5         26         58       76.3       36.8      29.53       36.8        363       3344      -1029      -1.63       0.00       0.00      0.000
6:11pm            202          1          5         26         58       76.3       36.8      29.53       36.8        364       3344      -1028      -1.61       0.00       0.00      0.000
6:12pm            202          1          5         26         58       76.3       36.8      29.53       36.8        363       3344      -1029      -1.58       0.00       0.00      0.000
6:13pm            195          3          5         26         58       76.3       36.8      29.53       34.7        364       3344      -1028      -1.55       0.00       0.00      0.000
6:14pm            196          2          5         26         58       76.3       36.8      29.53       36.2        364       3344      -1028      -1.53       0.00       0.00      0.000
6:15pm            158          3          5         26         58       76.3       36.8      29.53       34.7        365       3344      -1027      -1.50       0.00       0.00      0.000
6:16pm            212          2          6         26         58       76.3       36.8      29.53       36.2        366       3344      -1026      -1.47       0.00       0.00      0.000
6:17pm            179          3          6         26         58       76.3       36.7      29.53       34.6        366       3343      -1033      -1.55       0.00       0.00      0.000
6:18pm            181          2          6         26         58       76.4       36.7      29.53       36.1        366       3343      -1033      -1.52       0.00       0.00      0.000
6:19pm            181          1          6         26         58       76.4       36.7      29.53       36.7        366       3343      -1033      -1.50       0.00       0.00      0.000
6:20pm            210          6          7         26         59       76.4       36.6      29.53       31.7        366       3239      -1040      -1.57       0.00       0.00      0.000
6:21pm            175          3          6         26         59       76.4       36.6      29.53       34.5        366       3239      -1040      -1.55       0.00       0.00      0.000
6:22pm            176          2          6         26         59       76.4       36.6      29.53       36.0        366       3239      -1040      -1.52       0.00       0.00      0.000
6:23pm            203          2          7         26         59       76.4       36.6      29.53       36.0        366       3239      -1040      -1.50       0.00       0.00      0.000
6:24pm            179          2          7         26         59       76.4       36.5      29.53       35.9        366       3238      -1047      -1.57       0.00       0.00      0.000
6:25pm            223          1          7         26         59       76.4       36.5      29.53       36.5        365       3238      -1048      -1.54       0.00       0.00      0.000
6:26pm            224          1          2         26         59       76.4       36.5      29.53       36.5        363       3238      -1050      -1.52       0.00       0.00      0.000
6:27pm            224          0          2         26         59       76.4       36.4      29.53       36.4        363       3236      -1057      -1.59       0.00       0.00      0.000
6:28pm            224          2          2         26         59       76.4       36.4      29.53       35.8        362       3236      -1058      -1.57       0.00       0.00      0.000
6:29pm            224          0          2         26         59       76.4       36.4      29.53       36.4        361       3236      -1059      -1.54       0.00       0.00      0.000
6:30pm            224          1          2         26         60       76.4       36.3      29.53       36.3        361       3135      -1066      -1.61       0.00       0.00      0.000
6:31pm            224          1          2         26         60       76.4       36.2      29.53       36.2        361       3133      -1074      -1.69       0.00       0.00      0.000
6:32pm            232          1          2         26         60       76.4       36.2      29.53       36.2        361       3133      -1074      -1.66       0.00       0.00      0.000
6:33pm            232          1          2         26         60       76.4       36.2      29.53       36.2        360       3133      -1076      -1.63       0.00       0.00      0.000
6:34pm            162          1          3         26         60       76.4       36.1      29.53       36.1        361       3132      -1081      -1.70       0.00       0.00      0.000
6:35pm            202          2          5         26         60       76.4       36.1      29.53       35.5        360       3132      -1083      -1.67       0.00       0.00      0.000
6:36pm            202          1          2         26         60       76.4       36.1      29.53       36.1        360       3132      -1083      -1.65       0.00       0.00      0.000
6:37pm            202          2          2         28         60       76.4       36.0      29.54       35.4        358       3131      -1092      -1.72       0.00       0.00      0.000
6:38pm            203          1          2         26         60       76.4       36.0      29.54       36.0        357       3131      -1093      -1.69       0.00       0.00      0.000
6:39pm            194          4          4         26         61       76.4       36.0      29.54       32.7        356       3032      -1094      -1.66       0.00       0.00      0.000
6:40pm            197          2          4         26         61       76.4       36.1      29.54       35.5        357       3034      -1086      -1.54       0.00       0.00      0.000
6:41pm            170          1          3         26         61       76.4       36.1      29.54       36.1        358       3034      -1085      -1.51       0.00       0.00      0.000
6:42pm            189          3          5         26         61       76.4       36.1      29.53       34.0        360       3034      -1083      -1.48       0.00       0.00      0.000
6:43pm            174          4          6         26         61       76.4       36.1      29.53       32.8        360       3034      -1083      -1.46       0.00       0.00      0.000
6:44pm            190          2          6         26         61       76.4       36.1      29.53       35.5        360       3034      -1083      -1.44       0.00       0.00      0.000
6:45pm            191          5          6         26         62       76.4       36.1      29.53       31.9        359       2936      -1084      -1.41       0.00       0.00      0.000
6:46pm            157          2          5         26         62       76.4       36.1      29.53       35.5        359       2936      -1084      -1.39       0.00       0.00      0.000
6:47pm            189          5          5         26         62       76.4       36.1      29.53       31.9        359       2936      -1084      -1.37       0.00       0.00      0.000
6:48pm            209          1          5         26         62       76.4       36.2      29.53       36.2        361       2938      -1074      -1.25       0.00       0.00      0.000
6:49pm            204          2          5         26         62       76.4       36.2      29.53       35.6        360       2938      -1076      -1.22       0.00       0.00      0.000
6:50pm            197          2          5         26         62       76.6       36.1      29.53       35.5        362       2936      -1079      -1.30       0.00       0.00      0.000
6:51pm            185          3          6         26         62       76.6       36.2      29.53       34.1        363       2938      -1071      -1.18       0.00       0.00      0.000
6:52pm            181          3          6         26         62       76.6       36.1      29.53       34.0        365       2936      -1076      -1.26       0.00       0.00      0.000
6:53pm            172          2          6         26         62       76.6       36.1      29.53       35.5        365       2936      -1076      -1.24       0.00       0.00      0.000
6:54pm            167          2          6         26         63       76.6       36.1      29.53       35.5        366       2841      -1074      -1.22       0.00       0.00      0.000
6:55pm            131          2          6         26         63       76.6       36.1      29.53       35.5        366       2841      -1074      -1.20       0.00       0.00      0.000
6:56pm            166          3          3         26         63       76.6       36.1      29.53       34.0        366       2841      -1074      -1.18       0.00       0.00      0.000
6:57pm            203          3          5         26         63       76.6       36.2      29.53       34.1        366       2842      -1068      -1.06       0.00       0.00      0.000
6:58pm            168          4          5         26         63       76.6       36.1      29.53       32.8        366       2841      -1074      -1.14       0.00       0.00      0.000
6:59pm            169          2          5         26         63       76.6       36.1      29.53       35.5        367       2841      -1073      -1.12       0.00       0.00      0.000
7:00pm            158          3          8         26         63       76.6       36.1      29.53       34.0        367       2841      -1073      -1.10       0.00       0.00      0.000
7:01pm            183          2          4         26         63       76.6       36.1      29.53       35.5        366       2841      -1074      -1.09       0.00       0.00      0.000
7:02pm            220          2          4         26         63       76.6       36.1      29.53       35.5        366       2841      -1074      -1.07       0.00       0.00      0.000
7:03pm            220          2          4         26         63       76.6       36.1      29.53       35.5        365       2841      -1076      -1.05       0.00       0.00      0.000
7:04pm            216          2          4         26         63       76.6       36.1      29.53       35.5        364       2841      -1077      -1.03       0.00       0.00      0.000
7:05pm            206          2          5         26         64       76.6       36.0      29.53       35.4        365       2745      -1083      -1.11       0.00       0.00      0.000
7:06pm            206          1          2         26         64       76.6       36.0      29.53       36.0        366       2745      -1081      -1.10       0.00       0.00      0.000
7:07pm            206          3          3         26         64       76.6       36.0      29.53       33.8        366       2745      -1081      -1.08       0.00       0.00      0.000
7:08pm            185          4          4         26         64       76.6       35.9      29.53       32.6        366       2744      -1088      -1.16       0.00       0.00      0.000
7:09pm            185          1          4         26         64       76.6       35.9      29.53       35.9        367       2744      -1087      -1.14       0.00       0.00      0.000
7:10pm            241          2          6         26         64       76.6       35.9      29.53       35.3        367       2744      -1087      -1.12       0.00       0.00      0.000
7:11pm            225          2          2         26         64       76.6       35.8      29.53       35.1        367       2743      -1094      -1.20       0.00       0.00      0.000
7:12pm            144          3          4         26         64       76.6       35.9      29.53       33.7        367       2744      -1087      -1.08       0.00       0.00      0.000
7:13pm            178          4          5         26         65       76.6       35.8      29.53       32.5        367       2650      -1094      -1.16       0.00       0.00      0.000
7:14pm            198          1          6         26         65       76.6       35.8      29.53       35.8        367       2650      -1094      -1.14       0.00       0.00      0.000
7:15pm            198          1          6         26         65       76.6       35.8      29.53       35.8        367       2650      -1094      -1.12       0.00       0.00      0.000
7:16pm            198          0          1         26         65       76.6       35.8      29.53       35.8        366       2650      -1095      -1.11       0.00       0.00      0.000
7:17pm            198          2          3         26         65       76.6       35.8      29.53       35.1        366       2650      -1095      -1.09       0.00       0.00      0.000
7:18pm            187          1          4         26         65       76.6       35.7      29.53       35.7        365       2648      -1103      -1.17       0.00       0.00      0.000
7:19pm            187          0          4         26         65       76.6       35.8      29.53       35.8        365       2650      -1096      -1.05       0.00       0.00      0.000
7:20pm            258          2          4         26         65       76.6       35.7      29.53       35.0        365       2648      -1103      -1.13       0.00       0.00      0.000
7:21pm            186          1          5         26         65       76.6       35.7      29.53       35.7        366       2648      -1102      -1.11       0.00       0.00      0.000
7:22pm            202          3          5         26         65       76.6       35.7      29.53       33.5        366       2648      -1102      -1.10       0.00       0.00      0.000
7:23pm            172          1          5         26         65       76.6       35.7      29.53       35.7        366       2648      -1102      -1.08       0.00       0.00      0.000
7:24pm            181          2          6         26         66       76.6       35.7      29.53       35.0        367       2557      -1101      -1.06       0.00       0.00      0.000
7:25pm            181          1          6         26         66       76.6       35.7      29.53       35.7        367       2557      -1101      -1.04       0.00       0.00      0.000
7:26pm            181          2          2         26         66       76.8       35.7      29.53       35.0        367       2557      -1101      -1.02       0.00       0.00      0.000
7:27pm            181          3          3         26         66       76.6       35.6      29.53       33.4        367       2556      -1108      -1.11       0.00       0.00      0.000
7:28pm            181          2          3         26         66       76.6       35.6      29.53       34.9        367       2556      -1108      -1.09       0.00       0.00      0.000
7:29pm            181          2          3         26         66       76.6       35.6      29.53       34.9        367       2556      -1108      -1.07       0.00       0.00      0.000
7:30pm            181          2          3         26         66       76.6       35.6      29.53       34.9        366       2556      -1109      -1.05       0.00       0.00      0.000
7:31pm            240          4          4         26         66       76.6       35.5      29.53       32.1        366       2554      -1116      -1.13       0.00       0.00      0.000
7:32pm            237          0          4         26         66       76.6       35.6      29.53       35.6        367       2556      -1108      -1.02       0.00       0.00      0.000
7:33pm            237          2          4         26         66       76.6       35.6      29.53       34.9        367       2556      -1108      -1.00       0.00       0.00      0.000
7:34pm            235          2          4         26         66       76.6       35.5      29.53       34.8        367       2554      -1115      -1.08       0.00       0.00      0.000
7:35pm            208          2          4         26         66       76.6       35.5      29.52       34.8        368       2554      -1114      -1.06       0.00       0.00      0.000
7:36pm            208          2          3         26         66       76.8       35.5      29.53       34.8        367       2554      -1115      -1.05       0.00       0.00      0.000
7:37pm            208          2          3         26         67       76.8       35.5      29.52       34.8        368       2464      -1114      -1.03       0.00       0.00      0.000
7:38pm            182          1          3         26         67       76.8       35.5      29.52       35.5        368       2464      -1114      -1.01       0.00       0.00      0.000
7:39pm            218          3          3         26         66       76.8       35.5      29.52       33.3        368       2554      -1114      -1.00       0.00       0.00      0.000
7:40pm            218          1          3         26         67       76.8       35.5      29.52       35.5        368       2464      -1114      -0.98       0.00       0.00      0.000
7:41pm            218          2          2         26         67       76.8       35.4      29.52       34.7        368       2463      -1121      -1.06       0.00       0.00      0.000
7:42pm            203          1          3         26         67       76.8       35.5      29.52       35.5        368       2464      -1114      -0.95       0.00       0.00      0.000
7:43pm            203          1          3         26         67       76.8       35.4      29.53       35.4        367       2463      -1122      -1.03       0.00       0.00      0.000
7:44pm            203          1          3         26         67       76.8       35.4      29.53       35.4        367       2463      -1122      -1.01       0.00       0.00      0.000
7:45pm            203          1          3         26         67       76.8       35.3      29.52       35.3        368       2462      -1128      -1.10       0.00       0.00      0.000
7:46pm            206          1          3         26         67       76.8       35.3      29.53       35.3        367       2462      -1129      -1.08       0.00       0.00      0.000
7:47pm            206          2          3         26         67       76.8       35.3      29.53       34.6        367       2462      -1129      -1.06       0.00       0.00      0.000
7:48pm            248          2          3         26         67       76.8       35.3      29.53       34.6        367       2462      -1129      -1.04       0.00       0.00      0.000
7:49pm            248          2          3         26         67       76.8       35.3      29.53       34.6        367       2462      -1129      -1.02       0.00       0.00      0.000
7:50pm            249          2          3         26         67       76.8       35.3      29.53       34.6        367       2462      -1129      -1.01       0.00       0.00      0.000
7:51pm            195          1          2         26         67       76.8       35.2      29.53       35.2        367       2461      -1136      -1.09       0.00       0.00      0.000
7:52pm            195          1          2         26         68       76.8       35.2      29.53       35.2        367       2372      -1136      -1.07       0.00       0.00      0.000
7:53pm            195          2          2         26         68       76.8       35.2      29.53       34.5        367       2372      -1136      -1.05       0.00       0.00      0.000
7:54pm            195          1          2         26         68       76.8       35.2      29.53       35.2        367       2372      -1136      -1.04       0.00       0.00      0.000
7:55pm            195          1          2         26         68       76.8       35.1      29.53       35.1        367       2371      -1143      -1.12       0.00       0.00      0.000
7:56pm            195          1          2         26         68       76.8       35.1      29.53       35.1        367       2371      -1143      -1.10       0.00       0.00      0.000
7:57pm            195          0          2         26         68       76.8       35.1      29.53       35.1        366       2371      -1144      -1.08       0.00       0.00      0.000
7:58pm            236          0          2         26         68       76.8       35.1      29.53       35.1        366       2371      -1144      -1.06       0.00       0.00      0.000
7:59pm            199          5          5         26         68       76.8       35.0      29.53       30.6        366       2370      -1151      -1.14       0.00       0.00      0.000
8:00pm            208          1          5         26         68       76.8       35.1      29.53       35.1        366       2371      -1144      -1.03       0.00       0.00      0.000
8:01pm            233          1          3         26         68       76.8       35.1      29.53       35.1        366       2371      -1144      -1.01       0.00       0.00      0.000
8:02pm            162          0          3         26         68       76.8       35.1      29.53       35.1        365       2371      -1145      -0.99       0.00       0.00      0.000
8:03pm            162          0          3         26         68       76.8       35.1      29.53       35.1        365       2371      -1145      -0.98       0.00       0.00      0.000
8:04pm            210          2          3         26         68       76.8       35.1      29.53       34.4        365       2371      -1145      -0.96       0.00       0.00      0.000
8:05pm            210          0          3         26         68       76.8       35.1      29.53       35.1        365       2371      -1145      -0.95       0.00       0.00      0.000
8:06pm            210          1          2         26         68       76.8       35.1      29.53       35.1        365       2371      -1145      -0.93       0.00       0.00      0.000
8:07pm            210          2          2         26         68       76.8       35.1      29.53       34.4        364       2371      -1146      -0.91       0.00       0.00      0.000
8:08pm            203          0          2         26         68       77.0       35.1      29.53       35.1        364       2371      -1146      -0.90       0.00       0.00      0.000
8:09pm            203          0          2         26         68       77.0       35.1      29.53       35.1        364       2371      -1146      -0.88       0.00       0.00      0.000
8:10pm            203          0          2         26         68       77.0       35.1      29.53       35.1        364       2371      -1146      -0.87       0.00       0.00      0.000
8:11pm            203          0          1         26         68       77.0       35.0      29.53       35.0        365       2370      -1152      -0.95       0.00       0.00      0.000
8:12pm            203          1          2         26         68       77.0       35.0      29.53       35.0        365       2370      -1152      -0.94       0.00       0.00      0.000
8:13pm            203          1          2         26         69       77.0       35.0      29.53       35.0        365       2282      -1152      -0.92       0.00       0.00      0.000
8:14pm            203          1          2         26         69       77.0       35.0      29.53       35.0        364       2282      -1153      -0.91       0.00       0.00      0.000
8:15pm            203          1          2         26         69       77.0       35.0      29.53       35.0        365       2282      -1152      -0.89       0.00       0.00      0.000
8:16pm            203          1          1         26         69       77.0       35.0      29.53       35.0        364       2282      -1153      -0.88       0.00       0.00      0.000
8:17pm            203          0          2         26         69       77.0       34.9      29.53       34.9        364       2281      -1160      -0.96       0.00       0.00      0.000
8:18pm            203          1          2         26         69       77.0       34.8      29.53       34.8        364       2280      -1167      -1.04       0.00       0.00      0.000
8:19pm            203          1          2         26         69       77.0       34.8      29.53       34.8        365       2280      -1166      -1.03       0.00       0.00      0.000
8:20pm            203          1          2         26         69       77.0       34.8      29.53       34.8        364       2280      -1167      -1.01       0.00       0.00      0.000
8:21pm            203          1          1         26         69       77.0       34.8      29.53       34.8        364       2280      -1167      -0.99       0.00       0.00      0.000
8:22pm            203          2          2         26         69       77.0       34.8      29.53       34.0        363       2280      -1168      -0.98       0.00       0.00      0.000
8:23pm            203          1          2         26         69       77.0       34.7      29.53       34.7        363       2279      -1175      -1.06       0.00       0.00      0.000
8:24pm            203          1          2         26         69       77.0       34.8      29.53       34.8        363       2280      -1168      -0.94       0.00       0.00      0.000
8:25pm            172          2          3         26         69       77.0       34.8      29.53       34.0        364       2280      -1167      -0.93       0.00       0.00      0.000
8:26pm            172          2          2         26         70       77.0       34.8      29.53       34.0        364       2193      -1167      -0.91       0.00       0.00      0.000
8:27pm            211          1          2         26         69       77.0       34.8      29.53       34.8        364       2280      -1167      -0.90       0.00       0.00      0.000
8:28pm            211          2          2         26         69       77.0       34.8      29.53       34.0        365       2280      -1166      -0.88       0.00       0.00      0.000
8:29pm            211          1          2         26         69       77.0       34.8      29.53       34.8        365       2280      -1166      -0.87       0.00       0.00      0.000
8:30pm            210          3          4         26         69       77.0       34.8      29.53       32.5        365       2280      -1166      -0.85       0.00       0.00      0.000
8:31pm            210          2          3         26         70       77.0       34.8      29.53       34.0        366       2193      -1165      -0.84       0.00       0.00      0.000
8:32pm            184          3          6         26         69       77.0       34.9      29.53       32.6        366       2281      -1158      -0.73       0.00       0.00      0.000
8:33pm            211          1          6         26         70       77.2       34.9      29.53       34.9        366       2194      -1158      -0.71       0.00       0.00      0.000
8:34pm            203          0          6         26         70       77.2       35.0      29.53       35.0        366       2195      -1151      -0.60       0.00       0.00      0.000
8:35pm            203          1          6         26         70       77.2       34.9      29.53       34.9        365       2194      -1159      -0.69       0.00       0.00      0.000
8:36pm            197          4          4         26         69       77.2       35.0      29.53       31.5        365       2282      -1152      -0.58       0.00       0.00      0.000
8:37pm            196          0          4         26         70       77.2       35.0      29.53       35.0        364       2195      -1153      -0.57       0.00       0.00      0.000
8:38pm            196          1          4         26         70       77.2       35.0      29.53       35.0        362       2195      -1156      -0.56       0.00       0.00      0.000
8:39pm            189          1          4         26         70       77.2       35.0      29.53       35.0        361       2195      -1157      -0.55       0.00       0.00      0.000
8:40pm            189          2          4         26         70       77.2       35.0      29.53       34.3        360       2195      -1159      -0.54       0.00       0.00      0.000
8:41pm            186          1          2         26         70       77.2       35.0      29.53       35.0        360       2195      -1159      -0.54       0.00       0.00      0.000
8:42pm            180          0          3         26         70       77.2       35.0      29.53       35.0        360       2195      -1159      -0.53       0.00       0.00      0.000
8:43pm            202          1          5         26         70       77.2       35.1      29.53       35.1        360       2196      -1152      -0.42       0.00       0.00      0.000
8:44pm            202          0          5         26         70       77.2       35.1      29.53       35.1        361       2196      -1151      -0.41       0.00       0.00      0.000
8:45pm            202          1          5         26         70       77.2       35.1      29.53       35.1        359       2196      -1153      -0.40       0.00       0.00      0.000
8:46pm            202          0          1         26         70       77.2       35.0      29.53       35.0        360       2195      -1159      -0.50       0.00       0.00      0.000
8:47pm            202          0          1         26         70       77.2       35.0      29.53       35.0        360       2195      -1159      -0.49       0.00       0.00      0.000
8:48pm            202          1          2         26         70       77.2       35.0      29.53       35.0        360       2195      -1159      -0.48       0.00       0.00      0.000
8:49pm            229          0          3         26         70       77.2       35.0      29.53       35.0        360       2195      -1159      -0.47       0.00       0.00      0.000
8:50pm            229          1          3         26         71       77.2       35.0      29.53       35.0        360       2109      -1159      -0.47       0.00       0.00      0.000
8:51pm            229          0          2         26         70       77.2       35.0      29.53       35.0        361       2195      -1158      -0.46       0.00       0.00      0.000
8:52pm            162          2          3         26         71       77.2       34.9      29.53       34.2        361       2108      -1164      -0.55       0.00       0.00      0.000
8:53pm            162          2          3         26         71       77.2       34.9      29.53       34.2        362       2108      -1163      -0.54       0.00       0.00      0.000
8:54pm            162          1          3         26         71       77.2       34.9      29.53       34.9        361       2108      -1164      -0.53       0.00       0.00      0.000
8:55pm            162          1          3         26         71       77.2       35.0      29.53       35.0        361       2109      -1157      -0.43       0.00       0.00      0.000
8:56pm            162          1          2         26         71       77.2       34.9      29.53       34.9        362       2108      -1163      -0.52       0.00       0.00      0.000
8:57pm            233          2          3         26         71       77.2       34.8      29.53       34.0        362       2107      -1169      -0.61       0.00       0.00      0.000
8:58pm            214          2          3         26         71       77.2       34.8      29.53       34.0        363       2107      -1168      -0.60       0.00       0.00      0.000
8:59pm            201          1          3         28         71       77.2       34.8      29.53       34.8        362       2107      -1169      -0.59       0.00       0.00      0.000
9:00pm            201          1          3         26         71       77.2       34.8      29.53       34.8        363       2107      -1168      -0.58       0.00       0.00      0.000
9:01pm            201          2          2         26         71       77.2       34.8      29.53       34.0        362       2107      -1169      -0.57       0.00       0.00      0.000
9:02pm            201          1          2         26         72       77.2       34.8      29.53       34.8        362       2023      -1169      -0.56       0.00       0.00      0.000
9:03pm            201          2          3         26         72       77.2       34.8      29.53       34.0        363       2023      -1168      -0.55       0.00       0.00      0.000
9:04pm            184          2          3         26         72       77.2       34.7      29.53       33.9        363       2022      -1175      -0.64       0.00       0.00      0.000
9:05pm            202          2          4         26         72       77.2       34.8      29.53       34.0        363       2023      -1168      -0.53       0.00       0.00      0.000
9:06pm            202          2          3         26         72       77.2       34.8      29.53       34.0        363       2023      -1168      -0.52       0.00       0.00      0.000
9:07pm            202          1          3         26         72       77.2       34.8      29.53       34.8        363       2023      -1168      -0.51       0.00       0.00      0.000
9:08pm            202          1          3         26         72       77.2       34.8      29.53       34.8        363       2023      -1168      -0.51       0.00       0.00      0.000
9:09pm            210          4          5         26         72       77.2       34.8      29.53       31.3        362       2023      -1169      -0.50       0.00       0.00      0.000
9:10pm            192          2          5         26         72       77.2       34.8      29.53       34.0        363       2023      -1168      -0.49       0.00       0.00      0.000
9:11pm            192          0          2         26         72       77.2       34.7      29.53       34.7        362       2022      -1176      -0.58       0.00       0.00      0.000
9:12pm            185          1          2         26         72       77.2       34.7      29.53       34.7        361       2022      -1178      -0.57       0.00       0.00      0.000
9:13pm            193          2          2         26         72       77.2       34.7      29.53       33.9        360       2022      -1180      -0.56       0.00       0.00      0.000
9:14pm            229          2          3         26         73       77.2       34.6      29.53       33.8        359       1938      -1188      -0.65       0.00       0.00      0.000
9:15pm            203          2          5         26         72       77.2       34.6      29.53       33.8        360       2021      -1187      -0.64       0.00       0.00      0.000
9:16pm            198          1          2         26         73       77.2       34.5      29.54       34.5        358       1937      -1196      -0.73       0.00       0.00      0.000
9:17pm            207          1          3         26         73       77.2       34.5      29.54       34.5        358       1937      -1196      -0.72       0.00       0.00      0.000
9:18pm            241          1          3         26         73       77.2       34.5      29.53       34.5        359       1937      -1195      -0.70       0.00       0.00      0.000
9:19pm            240          2          3         26         73       77.3       34.5      29.53       33.7        359       1937      -1195      -0.69       0.00       0.00      0.000
9:20pm            216          1          4         26         73       77.3       34.6      29.53       34.6        360       1938      -1187      -0.58       0.00       0.00      0.000
9:21pm            185          3          5         26         74       77.3       34.6      29.53       32.3        360       1855      -1187      -0.57       0.00       0.00      0.000
9:22pm            185          3          5         26         73       77.3       34.6      29.53       32.3        361       1938      -1185      -0.56       0.00       0.00      0.000
9:23pm            193          2          5         26         74       77.3       34.6      29.53       33.8        361       1855      -1185      -0.55       0.00       0.00      0.000
9:24pm            193          2          5         26         74       77.3       34.6      29.53       33.8        361       1855      -1185      -0.55       0.00       0.00      0.000
9:25pm            214          2          5         26         74       77.3       34.6      29.53       33.8        360       1855      -1187      -0.54       0.00       0.00      0.000
9:26pm            214          1          2         26         74       77.3       34.6      29.53       34.6        360       1855      -1187      -0.53       0.00       0.00      0.000
9:27pm            175          2          3         26         74       77.3       34.6      29.53       33.8        361       1855      -1185      -0.52       0.00       0.00      0.000
9:28pm            196          4          6         26         74       77.3       34.7      29.53       31.2        361       1856      -1178      -0.41       0.00       0.00      0.000
9:29pm            204          6          7         26         74       77.3       34.8      29.53       29.6        362       1857      -1169      -0.30       0.00       0.00      0.000
9:30pm            219          2          7         26         75       77.3       34.8      29.53       34.0        362       1776      -1169      -0.30       0.00       0.00      0.000
9:31pm            206          6          6         26         74       77.3       34.8      29.53       29.6        364       1857      -1167      -0.29       0.00       0.00      0.000
9:32pm            174          4          7         26         74       77.3       34.8      29.53       31.3        363       1857      -1168      -0.29       0.00       0.00      0.000
9:33pm            181          4          7         26         75       77.3       34.8      29.53       31.3        363       1776      -1168      -0.29       0.00       0.00      0.000
9:34pm            177          2          8         26         75       77.3       34.9      29.53       34.2        363       1777      -1161      -0.18       0.00       0.00      0.000
9:35pm            188          0          8         26         75       77.3       35.0      29.53       35.0        362       1777      -1156      -0.08       0.00       0.00      0.000
9:36pm            174          2          5         26         75       77.3       35.0      29.53       34.3        362       1777      -1156      -0.08       0.00       0.00      0.000
9:37pm            225          4          5         26         75       77.3       35.0      29.53       31.5        361       1777      -1157      -0.08       0.00       0.00      0.000
9:38pm            233          2          6         26         75       77.3       35.0      29.53       34.3        361       1777      -1158      -0.08       0.00       0.00      0.000
9:39pm            220          2          6         26         75       77.3       35.0      29.53       34.3        361       1777      -1157      -0.08       0.00       0.00      0.000
9:40pm            213          3          6         26         75       77.3       34.8      29.53       32.5        361       1776      -1172      -0.27       0.00       0.00      0.000
9:41pm            243          2          4         26         75       77.3       34.9      29.53       34.2        361       1777      -1164      -0.17       0.00       0.00      0.000
9:42pm            187          2          4         26         75       77.3       34.8      29.53       34.0        362       1776      -1169      -0.27       0.00       0.00      0.000
9:43pm            187          2          4         26         75       77.3       34.8      29.53       34.0        361       1776      -1171      -0.26       0.00       0.00      0.000
9:44pm            191          2          4         26         75       77.3       34.8      29.53       34.0        363       1776      -1168      -0.26       0.00       0.00      0.000
9:45pm            191          3          4         26         75       77.3       34.8      29.53       32.5        362       1776      -1169      -0.25       0.00       0.00      0.000
9:46pm            162          3          4         26         76       77.3       34.8      29.53       32.5        364       1695      -1167      -0.25       0.00       0.00      0.000
9:47pm            197          3          6         26         76       77.3       34.8      29.53       32.5        366       1695      -1165      -0.24       0.00       0.00      0.000
9:48pm            189          1          6         26         76       77.3       34.8      29.53       34.8        365       1695      -1166      -0.24       0.00       0.00      0.000
9:49pm            191          3          6         26         76       77.3       34.8      29.53       32.5        364       1695      -1167      -0.24       0.00       0.00      0.000
9:50pm            232          3          6         26         76       77.3       34.8      29.53       32.5        364       1695      -1167      -0.23       0.00       0.00      0.000
9:51pm            158          2          5         26         76       77.3       34.8      29.53       34.0        364       1695      -1167      -0.23       0.00       0.00      0.000
9:52pm            206          3          5         26         76       77.3       34.8      29.53       32.5        364       1695      -1167      -0.22       0.00       0.00      0.000
9:53pm            162          5          5         26         76       77.3       34.9      29.53       30.5        364       1696      -1160      -0.12       0.00       0.00      0.000
9:54pm            174          2          6         26         77       77.3       34.9      29.53       34.2        364       1616      -1160      -0.12       0.00       0.00      0.000
9:55pm            197          3          6         26         77       77.3       34.9      29.53       32.6        364       1616      -1160      -0.12       0.00       0.00      0.000
9:56pm            197          2          3         26         77       77.3       34.9      29.53       34.2        365       1616      -1159      -0.11       0.00       0.00      0.000
9:57pm            207          3          5         26         77       77.3       34.9      29.53       32.6        365       1616      -1159      -0.11       0.00       0.00      0.000
9:58pm            258          3          5         26         77       77.3       34.9      29.53       32.6        366       1616      -1158      -0.11       0.00       0.00      0.000
9:59pm            187          2          5         26         77       77.3       35.0      29.53       34.3        367       1617      -1150      -0.01       0.00       0.00      0.000
10:00pm           184          3          5         26         77       77.3       35.0      29.53       32.7        367       1617      -1150      -0.01       0.00       0.00      0.000
10:01pm           184          3          3         26         77       77.3       34.9      29.53       32.6        367       1616      -1157      -0.11       0.00       0.00      0.000
10:02pm           227          2          4         26         77       77.3       34.8      29.53       34.0        367       1616      -1164      -0.20       0.00       0.00      0.000
10:03pm           220          3          4         26         77       77.3       34.9      29.53       32.6        367       1616      -1157      -0.10       0.00       0.00      0.000
10:04pm           202          2          5         28         77       77.3       34.9      29.52       34.2        368       1616      -1156      -0.10       0.00       0.00      0.000
10:05pm           175          2          5         26         77       77.3       34.9      29.53       34.2        367       1616      -1157      -0.10       0.00       0.00      0.000
10:06pm           185          3          5         26         77       77.3       35.0      29.53       32.7        367       1617      -1150       0.00       0.00       0.00      0.000
10:07pm           206          3          5         26         78       77.3       35.0      29.53       32.7        367       1538      -1150       0.00       0.00       0.00      0.000
10:08pm           235          2          5         26         77       77.3       35.0      29.53       34.3        367       1617      -1150       0.00       0.00       0.00      0.000
10:09pm           190          3          5         26         78       77.3       35.0      29.53       32.7        367       1538      -1150       0.00       0.00       0.00      0.000
10:10pm           236          2          5         26         78       77.3       35.0      29.53       34.3        367       1538      -1150       0.01       0.00       0.00      0.000
10:11pm           206          4          4         26         78       77.3       35.0      29.53       31.5        367       1538      -1150       0.01       0.00       0.00      0.000
10:12pm           189          2          6         26         78       77.3       35.0      29.53       34.3        367       1538      -1150       0.01       0.00       0.00      0.000
10:13pm           189          2          6         26         78       77.3       35.0      29.53       34.3        367       1538      -1150       0.01       0.00       0.00      0.000
10:14pm           187          3          6         26         78       77.3       35.0      29.53       32.7        367       1538      -1150       0.01       0.00       0.00      0.000
10:15pm           221          3          7         26         78       77.3       35.0      29.53       32.7        367       1538      -1150       0.00       0.00       0.00      0.000
10:16pm           200          4          7         26         78       77.3       35.1      29.53       31.7        367       1539      -1143       0.10       0.00       0.00      0.000
10:17pm           200          1          7         26         78       77.3       35.1      29.53       35.1        367       1539      -1143       0.10       0.00       0.00      0.000
10:18pm           228          0          7         26         78       77.2       35.1      29.53       35.1        366       1539      -1144       0.10       0.00       0.00      0.000
10:19pm           229          2          7         26         78       77.2       35.0      29.53       34.3        367       1538      -1150      -0.00       0.00       0.00      0.000
10:20pm           188          4          7         26         78       77.2       35.0      29.53       31.5        367       1538      -1150      -0.00       0.00       0.00      0.000
10:21pm           169          6          6         26         79       77.2       35.0      29.53       29.8        367       1461      -1150      -0.00       0.00       0.00      0.000
10:22pm           196          2          6         26         79       77.2       35.0      29.52       34.3        368       1461      -1149      -0.00       0.00       0.00      0.000
10:23pm           174          2          6         26         78       77.2       35.1      29.52       34.4        368       1539      -1142       0.10       0.00       0.00      0.000
10:24pm           235          4          6         26         79       77.2       35.0      29.52       31.5        368       1461      -1149      -0.00       0.00       0.00      0.000
10:25pm           199          2          6         26         79       77.2       35.1      29.52       34.4        368       1461      -1142       0.09       0.00       0.00      0.000
10:26pm           197          3          3         26         78       77.2       35.1      29.52       32.8        368       1539      -1142       0.09       0.00       0.00      0.000
10:27pm           172          6          6         26         79       77.2       35.1      29.52       29.9        368       1461      -1142       0.09       0.00       0.00      0.000
10:28pm           174          4          6         26         79       77.2       35.1      29.52       31.7        369       1461      -1141       0.09       0.00       0.00      0.000
10:29pm           214          2          6         26         79       77.2       35.1      29.52       34.4        369       1461      -1141       0.09       0.00       0.00      0.000
10:30pm           208          1          6         26         79       77.2       35.0      29.52       35.0        369       1461      -1148      -0.01       0.00       0.00      0.000
10:31pm           252          2          7         26         79       77.2       35.0      29.52       34.3        369       1461      -1148      -0.01       0.00       0.00      0.000
10:32pm           203          5          7         26         79       77.2       35.0      29.52       30.6        369       1461      -1148      -0.01       0.00       0.00      0.000
10:33pm           218          2          7         26         79       77.2       35.0      29.52       34.3        369       1461      -1148      -0.01       0.00       0.00      0.000
10:34pm           196          3          7         26         79       77.2       34.9      29.52       32.6        368       1460      -1156      -0.11       0.00       0.00      0.000
10:35pm           232          2          7         26         79       77.2       34.9      29.52       34.2        369       1460      -1154      -0.11       0.00       0.00      0.000
10:36pm           214          2          4         26         79       77.2       35.0      29.52       34.3        368       1461      -1149      -0.01       0.00       0.00      0.000
10:37pm           214          2          4         26         80       77.0       34.9      29.52       34.2        368       1383      -1156      -0.11       0.00       0.00      0.000
10:38pm           186          2          4         26         80       77.0       34.9      29.52       34.2        368       1383      -1156      -0.10       0.00       0.00      0.000
10:39pm           186          2          4         26         80       77.0       34.8      29.52       34.0        368       1382      -1163      -0.20       0.00       0.00      0.000
10:40pm           186          2          4         26         80       77.0       34.9      29.52       34.2        368       1383      -1156      -0.10       0.00       0.00      0.000
10:41pm           228          2          3         26         80       77.0       34.9      29.52       34.2        368       1383      -1156      -0.10       0.00       0.00      0.000
10:42pm           222          3          3         26         80       77.0       34.9      29.52       32.6        368       1383      -1156      -0.10       0.00       0.00      0.000
10:43pm           221          1          3         26         80       77.0       34.9      29.52       34.9        368       1383      -1156      -0.10       0.00       0.00      0.000
10:44pm           221          2          3         26         80       77.0       34.9      29.52       34.2        368       1383      -1156      -0.09       0.00       0.00      0.000
10:45pm           221          1          3         26         80       77.0       34.8      29.52       34.8        368       1382      -1163      -0.19       0.00       0.00      0.000
10:46pm           222          2          3         26         80       77.0       34.8      29.52       34.0        369       1382      -1161      -0.19       0.00       0.00      0.000
10:47pm           206          2          3         26         80       77.0       34.7      29.52       33.9        370       1382      -1167      -0.28       0.00       0.00      0.000
10:48pm           195          3          5         26         80       77.0       34.7      29.52       32.4        370       1382      -1167      -0.28       0.00       0.00      0.000
10:49pm           193          2          5         26         80       77.0       34.7      29.52       33.9        370       1382      -1167      -0.27       0.00       0.00      0.000
10:50pm           190          5          5         26         80       76.8       34.7      29.52       30.2        370       1382      -1167      -0.27       0.00       0.00      0.000
10:51pm           167          3          6         26         80       76.8       34.7      29.52       32.4        372       1382      -1164      -0.26       0.00       0.00      0.000
10:52pm           227          3          6         26         80       76.8       34.6      29.52       32.3        373       1381      -1170      -0.36       0.00       0.00      0.000
10:53pm           197          5          6         26         81       76.8       34.6      29.52       30.1        374       1305      -1168      -0.35       0.00       0.00      0.000
10:54pm           158          2          6         26         81       76.8       34.6      29.52       33.8        375       1305      -1167      -0.35       0.00       0.00      0.000
10:55pm           158          2          6         26         81       76.8       34.6      29.52       33.8        376       1305      -1166      -0.34       0.00       0.00      0.000
10:56pm           170          6          6         26         81       76.8       34.6      29.51       29.3        377       1305      -1165      -0.34       0.00       0.00      0.000
10:57pm           183          2          6         26         81       76.8       34.6      29.51       33.8        378       1305      -1164      -0.33       0.00       0.00      0.000
10:58pm           217          5          6         26         81       76.8       34.5      29.51       30.0        379       1305      -1170      -0.42       0.00       0.00      0.000
10:59pm           181          4          6         26         81       76.8       34.6      29.51       31.1        380       1305      -1162      -0.32       0.00       0.00      0.000
11:00pm           220          5          6         26         81       76.8       34.6      29.51       30.1        381       1305      -1160      -0.31       0.00       0.00      0.000
11:01pm           214          1          7         26         81       76.8       34.6      29.51       34.6        381       1305      -1160      -0.31       0.00       0.00      0.000
11:02pm           210          2          7         26         81       76.8       34.6      29.51       33.8        381       1305      -1160      -0.30       0.00       0.00      0.000
11:03pm           206          1          7         26         81       76.8       34.6      29.51       34.6        382       1305      -1159      -0.30       0.00       0.00      0.000
11:04pm           205          1          7         26         81       76.8       34.6      29.51       34.6        382       1305      -1159      -0.29       0.00       0.00      0.000
11:05pm           181          3          8         26         81       76.8       34.6      29.51       32.3        382       1305      -1159      -0.29       0.00       0.00      0.000
11:06pm           207          2          4         26         82       76.8       34.6      29.51       33.8        382       1230      -1159      -0.28       0.00       0.00      0.000
11:07pm           199          2          8         26         82       76.8       34.6      29.51       33.8        382       1230      -1159      -0.28       0.00       0.00      0.000
11:08pm           224          3          8         26         82       76.6       34.6      29.51       32.3        382       1230      -1159      -0.27       0.00       0.00      0.000
11:09pm           224          3          8         26         82       76.6       34.6      29.51       32.3        382       1230      -1159      -0.27       0.00       0.00      0.000
11:10pm           194          3          8         26         82       76.6       34.6      29.51       32.3        382       1230      -1159      -0.26       0.00       0.00      0.000
11:11pm           174          3          4         26         82       76.6       34.6      29.51       32.3        382       1230      -1159      -0.26       0.00       0.00      0.000
11:12pm           175          1          4         26         82       76.6       34.6      29.51       34.6        382       1230      -1159      -0.26       0.00       0.00      0.000
11:13pm           214          4          5         26         82       76.6       34.6      29.51       31.1        382       1230      -1159      -0.25       0.00       0.00      0.000
11:14pm           184          3          5         26         82       76.6       34.6      29.51       32.3        382       1230      -1159      -0.25       0.00       0.00      0.000
11:15pm           185          1          5         26         82       76.6       34.6      29.51       34.6        382       1230      -1159      -0.24       0.00       0.00      0.000
11:16pm           191          5          5         26         82       76.6       34.6      29.51       30.1        383       1230      -1158      -0.24       0.00       0.00      0.000
11:17pm           219          2          5         26         82       76.6       34.5      29.51       33.7        383       1229      -1165      -0.34       0.00       0.00      0.000
11:18pm           211          5          5         26         82       76.6       34.6      29.51       30.1        383       1230      -1158      -0.23       0.00       0.00      0.000
11:19pm           237          2          5         26         82       76.6       34.6      29.51       33.8        383       1230      -1158      -0.23       0.00       0.00      0.000
11:20pm           237          1          5         26         82       76.6       34.6      29.51       34.6        384       1230      -1157      -0.22       0.00       0.00      0.000
11:21pm           237          1          3         26         82       76.4       34.6      29.51       34.6        384       1230      -1157      -0.22       0.00       0.00      0.000
11:22pm           218          3          5         26         82       76.4       34.6      29.51       32.3        384       1230      -1157      -0.22       0.00       0.00      0.000
11:23pm           162          1          5         26         82       76.4       34.6      29.51       34.6        384       1230      -1157      -0.21       0.00       0.00      0.000
11:24pm           233          2          5         26         82       76.4       34.6      29.51       33.8        384       1230      -1157      -0.21       0.00       0.00      0.000
11:25pm           233          1          5         26         82       76.4       34.6      29.51       34.6        384       1230      -1157      -0.21       0.00       0.00      0.000
11:26pm           233          2          2         26         82       76.4       34.6      29.51       33.8        384       1230      -1156      -0.20       0.00       0.00      0.000
11:27pm           189          4          7         26         82       76.4       34.5      29.51       31.0        385       1229      -1162      -0.30       0.00       0.00      0.000
11:28pm           213          1          7         26         83       76.4       34.5      29.51       34.5        385       1155      -1162      -0.29       0.00       0.00      0.000
11:29pm           218          5          7         26         83       76.4       34.5      29.51       30.0        385       1155      -1162      -0.29       0.00       0.00      0.000
11:30pm           219          2          7         26         83       76.4       34.5      29.50       33.7        386       1155      -1161      -0.28       0.00       0.00      0.000
11:31pm           219          1          2         26         83       76.4       34.6      29.50       34.6        387       1156      -1152      -0.18       0.00       0.00      0.000
11:32pm           219          2          2         26         83       76.4       34.5      29.50       33.7        387       1155      -1159      -0.28       0.00       0.00      0.000
11:33pm           237          0          4         26         83       76.4       34.5      29.50       34.5        388       1155      -1158      -0.27       0.00       0.00      0.000
11:34pm           213          4          4         26         83       76.4       34.5      29.50       31.0        390       1155      -1156      -0.27       0.00       0.00      0.000
11:35pm           219          3          4         26         83       76.4       34.5      29.50       32.1        390       1155      -1156      -0.26       0.00       0.00      0.000
11:36pm           226          2          6         26         83       76.4       34.5      29.50       33.7        392       1155      -1154      -0.26       0.00       0.00      0.000
11:37pm           226          1          6         26         83       76.4       34.5      29.50       34.5        391       1155      -1155      -0.25       0.00       0.00      0.000
11:38pm           218          3          6         26         83       76.3       34.5      29.50       32.1        393       1155      -1153      -0.25       0.00       0.00      0.000
11:39pm           232          1          6         26         83       76.3       34.5      29.50       34.5        392       1155      -1154      -0.25       0.00       0.00      0.000
11:40pm           197          5          6         26         83       76.3       34.5      29.50       30.0        392       1155      -1154      -0.24       0.00       0.00      0.000
11:41pm           203          4          5         26         83       76.3       34.5      29.50       31.0        392       1155      -1154      -0.24       0.00       0.00      0.000
11:42pm           200          2          8         26         83       76.3       34.5      29.50       33.7        393       1155      -1153      -0.23       0.00       0.00      0.000
11:43pm           200          3          8         26         83       76.3       34.6      29.50       32.3        394       1156      -1144      -0.13       0.00       0.00      0.000
11:44pm           233          2          8         26         83       76.3       34.6      29.50       33.8        395       1156      -1143      -0.13       0.00       0.00      0.000
11:45pm           236          1          8         26         83       76.3       34.6      29.50       34.6        394       1156      -1144      -0.13       0.00       0.00      0.000
11:46pm           236          2          2         26         83       76.3       34.6      29.50       33.8        392       1156      -1147      -0.12       0.00       0.00      0.000
11:47pm           264          2          3         26         83       76.3       34.6      29.50       33.8        391       1156      -1148      -0.12       0.00       0.00      0.000
11:48pm           264          2          3         26         83       76.3       34.6      29.50       33.8        391       1156      -1148      -0.12       0.00       0.00      0.000
11:49pm           225          2         10         26         83       76.3       34.6      29.50       33.8        391       1156      -1148      -0.12       0.00       0.00      0.000
11:50pm           224          2         10         26         83       76.3       34.6      29.50       33.8        392       1156      -1147      -0.11       0.00       0.00      0.000
11:51pm           206          1          4         26         83       76.3       34.5      29.50       34.5        392       1155      -1154      -0.21       0.00       0.00      0.000
11:52pm           218          3          4         26         83       76.1       34.5      29.50       32.1        392       1155      -1154      -0.21       0.00       0.00      0.000
11:53pm           206          3          4         26         83       76.1       34.5      29.50       32.1        394       1155      -1151      -0.20       0.00       0.00      0.000
11:54pm           208          1          4         26         83       76.1       34.5      29.50       34.5        394       1155      -1151      -0.20       0.00       0.00      0.000
11:55pm           183          2          4         26         83       76.1       34.5      29.50       33.7        394       1155      -1151      -0.20       0.00       0.00      0.000
11:56pm           208          3          7         26         83       76.1       34.4      29.50       32.0        395       1155      -1157      -0.29       0.00       0.00      0.000
11:57pm           202          2          7         26         83       76.1       34.5      29.50       33.7        395       1155      -1150      -0.19       0.00       0.00      0.000
11:58pm           209          2          7         26         83       76.1       34.5      29.50       33.7        394       1155      -1151      -0.19       0.00       0.00      0.000
11:59pm           190          1          7         26         83       76.1       34.5      29.50       34.5        395       1155      -1150      -0.18       0.00       0.00      0.000

Data provided from:  Mark Hofmann's Bel Air, MD Weather Station